Wetterdaten: Freitag, 06.12.2013
Datum Zeit Temp. Aussen +5cm Feuchte Auss Luftdruck Regen Sonnenschein Regendauer UV Solar Windben
06.12.2013 00:00 2,8 C 1,1 C 89 % 1015,2 hPa 0,0 l/m 0 min 0 min 0,0 UV-I 0 W/m 7,7 km/h (2 Bft)
06.12.2013 00:02 2,8 C 1,1 C 89 % 1015,1 hPa 0,0 l/m 0 min 0 min 0,0 UV-I 0 W/m 5,1 km/h (1 Bft)
06.12.2013 00:06 2,7 C 1,1 C 89 % 1015,2 hPa 0,0 l/m 0 min 0 min 0,0 UV-I 0 W/m 12,9 km/h (3 Bft)
06.12.2013 00:08 2,7 C 1,1 C 89 % 1015,2 hPa 0,0 l/m 0 min 0 min 0,0 UV-I 0 W/m 7,7 km/h (2 Bft)
06.12.2013 00:10 2,7 C 1,1 C 89 % 1015,2 hPa 0,0 l/m 0 min 0 min 0,0 UV-I 0 W/m 12,9 km/h (3 Bft)
06.12.2013 00:12 2,7 C 1,1 C 89 % 1015,2 hPa 0,0 l/m 0 min 0 min 0,0 UV-I 0 W/m 18,0 km/h (3 Bft)
06.12.2013 00:14 2,7 C 1,1 C 89 % 1015,1 hPa 0,0 l/m 0 min 0 min 0,0 UV-I 0 W/m 18,0 km/h (3 Bft)
06.12.2013 00:16 2,7 C 1,1 C 90 % 1015,1 hPa 0,0 l/m 0 min 0 min 0,0 UV-I 0 W/m 10,3 km/h (2 Bft)
06.12.2013 00:18 2,7 C 1,1 C 90 % 1015,0 hPa 0,0 l/m 0 min 0 min 0,0 UV-I 0 W/m 15,4 km/h (3 Bft)
06.12.2013 00:20 2,7 C 1,7 C 90 % 1015,0 hPa 0,0 l/m 0 min 0 min 0,0 UV-I 0 W/m 10,3 km/h (2 Bft)
06.12.2013 00:22 2,7 C 1,7 C 90 % 1015,0 hPa 0,0 l/m 0 min 0 min 0,0 UV-I 0 W/m 18,0 km/h (3 Bft)
06.12.2013 00:24 2,7 C 1,7 C 90 % 1015,1 hPa 0,0 l/m 0 min 0 min 0,0 UV-I 0 W/m 20,6 km/h (4 Bft)
06.12.2013 00:26 2,7 C 1,7 C 90 % 1015,2 hPa 0,0 l/m 0 min 0 min 0,0 UV-I 0 W/m 12,9 km/h (3 Bft)
06.12.2013 00:28 2,8 C 1,7 C 90 % 1015,2 hPa 0,0 l/m 0 min 2 min 0,0 UV-I 0 W/m 18,0 km/h (3 Bft)
06.12.2013 00:30 2,8 C 1,7 C 90 % 1015,3 hPa 0,0 l/m 0 min 2 min 0,0 UV-I 0 W/m 18,0 km/h (3 Bft)
06.12.2013 00:32 2,8 C 1,7 C 90 % 1015,6 hPa 0,0 l/m 0 min 2 min 0,0 UV-I 0 W/m 30,9 km/h (5 Bft)
06.12.2013 00:34 2,9 C 1,7 C 90 % 1015,5 hPa 0,0 l/m 0 min 2 min 0,0 UV-I 0 W/m 33,5 km/h (5 Bft)
06.12.2013 00:36 2,8 C 1,1 C 90 % 1015,6 hPa 0,0 l/m 0 min 2 min 0,0 UV-I 0 W/m 41,2 km/h (6 Bft)
06.12.2013 00:38 2,8 C 1,1 C 90 % 1015,6 hPa 0,0 l/m 0 min 2 min 0,0 UV-I 0 W/m 20,6 km/h (4 Bft)
06.12.2013 00:40 2,8 C 1,1 C 90 % 1015,7 hPa 0,0 l/m 0 min 2 min 0,0 UV-I 0 W/m 28,3 km/h (4 Bft)
06.12.2013 00:42 2,8 C 1,1 C 90 % 1015,7 hPa 0,0 l/m 0 min 2 min 0,0 UV-I 0 W/m 18,0 km/h (3 Bft)
06.12.2013 00:44 2,7 C 1,1 C 90 % 1015,8 hPa 0,0 l/m 0 min 2 min 0,0 UV-I 0 W/m 23,2 km/h (4 Bft)
06.12.2013 00:46 2,7 C 1,1 C 91 % 1015,8 hPa 0,0 l/m 0 min 2 min 0,0 UV-I 0 W/m 18,0 km/h (3 Bft)
06.12.2013 00:48 2,7 C 1,1 C 91 % 1015,8 hPa 0,2 l/m 0 min 2 min 0,0 UV-I 0 W/m 36,0 km/h (5 Bft)
06.12.2013 00:50 2,6 C 1,1 C 91 % 1015,9 hPa 0,0 l/m 0 min 2 min 0,0 UV-I 0 W/m 15,4 km/h (3 Bft)
06.12.2013 00:52 2,5 C 1,1 C 91 % 1016,0 hPa 0,0 l/m 0 min 2 min 0,0 UV-I 0 W/m 25,7 km/h (4 Bft)
06.12.2013 00:54 2,5 C 1,1 C 91 % 1016,1 hPa 0,0 l/m 0 min 2 min 0,0 UV-I 0 W/m 25,7 km/h (4 Bft)
06.12.2013 00:56 2,4 C 0,6 C 91 % 1016,2 hPa 0,0 l/m 0 min 2 min 0,0 UV-I 0 W/m 15,4 km/h (3 Bft)
06.12.2013 00:58 2,4 C 0,6 C 91 % 1015,9 hPa 0,2 l/m 0 min 2 min 0,0 UV-I 0 W/m 20,6 km/h (4 Bft)
06.12.2013 01:00 2,3 C 0,6 C 91 % 1015,5 hPa 0,0 l/m 0 min 2 min 0,0 UV-I 0 W/m 12,9 km/h (3 Bft)
06.12.2013 01:02 2,2 C 0,6 C 91 % 1015,2 hPa 0,0 l/m 0 min 2 min 0,0 UV-I 0 W/m 12,9 km/h (3 Bft)
06.12.2013 01:04 2,2 C 0,0 C 91 % 1015,5 hPa 0,0 l/m 0 min 2 min 0,0 UV-I 0 W/m 12,9 km/h (3 Bft)
06.12.2013 01:06 2,1 C 0,0 C 92 % 1015,7 hPa 0,0 l/m 0 min 2 min 0,0 UV-I 0 W/m 23,2 km/h (4 Bft)
06.12.2013 01:08 2,0 C 0,0 C 92 % 1015,8 hPa 0,0 l/m 0 min 0 min 0,0 UV-I 0 W/m 12,9 km/h (3 Bft)
06.12.2013 01:10 1,9 C 0,0 C 92 % 1015,9 hPa 0,0 l/m 0 min 0 min 0,0 UV-I 0 W/m 15,4 km/h (3 Bft)
06.12.2013 01:12 1,9 C 0,6 C 92 % 1016,1 hPa 0,0 l/m 0 min 0 min 0,0 UV-I 0 W/m 23,2 km/h (4 Bft)
06.12.2013 01:14 1,8 C 0,6 C 92 % 1016,1 hPa 0,0 l/m 0 min 0 min 0,0 UV-I 0 W/m 18,0 km/h (3 Bft)
06.12.2013 01:16 1,8 C 0,6 C 92 % 1016,0 hPa 0,0 l/m 0 min 0 min 0,0 UV-I 0 W/m 18,0 km/h (3 Bft)
06.12.2013 01:18 1,8 C 0,6 C 92 % 1016,1 hPa 0,0 l/m 0 min 0 min 0,0 UV-I 0 W/m 20,6 km/h (4 Bft)
06.12.2013 01:20 1,8 C 0,6 C 92 % 1016,2 hPa 0,0 l/m 0 min 0 min 0,0 UV-I 0 W/m 20,6 km/h (4 Bft)
06.12.2013 01:22 1,8 C 0,6 C 92 % 1016,2 hPa 0,0 l/m 0 min 2 min 0,0 UV-I 0 W/m 12,9 km/h (3 Bft)
06.12.2013 01:24 1,8 C 0,6 C 92 % 1016,1 hPa 0,0 l/m 0 min 2 min 0,0 UV-I 0 W/m 18,0 km/h (3 Bft)
06.12.2013 01:26 1,8 C 0,6 C 92 % 1016,2 hPa 0,0 l/m 0 min 2 min 0,0 UV-I 0 W/m 10,3 km/h (2 Bft)
06.12.2013 01:28 1,8 C 0,6 C 93 % 1016,3 hPa 0,0 l/m 0 min 2 min 0,0 UV-I 0 W/m 18,0 km/h (3 Bft)
06.12.2013 01:30 1,8 C 0,6 C 93 % 1016,4 hPa 0,0 l/m 0 min 2 min 0,0 UV-I 0 W/m 28,3 km/h (4 Bft)
06.12.2013 01:32 1,8 C 0,0 C 93 % 1016,3 hPa 0,0 l/m 0 min 2 min 0,0 UV-I 0 W/m 18,0 km/h (3 Bft)
06.12.2013 01:34 1,8 C 0,0 C 93 % 1016,4 hPa 0,2 l/m 0 min 2 min 0,0 UV-I 0 W/m 43,8 km/h (6 Bft)
06.12.2013 01:36 1,7 C 0,0 C 93 % 1016,2 hPa 0,0 l/m 0 min 2 min 0,0 UV-I 0 W/m 25,7 km/h (4 Bft)
06.12.2013 01:38 1,7 C 0,0 C 93 % 1016,3 hPa 0,2 l/m 0 min 2 min 0,0 UV-I 0 W/m 20,6 km/h (4 Bft)
06.12.2013 01:40 1,6 C 0,0 C 93 % 1016,3 hPa 0,0 l/m 0 min 2 min 0,0 UV-I 0 W/m 30,9 km/h (5 Bft)
06.12.2013 01:42 1,6 C 0,0 C 93 % 1016,2 hPa 0,0 l/m 0 min 2 min 0,0 UV-I 0 W/m 7,7 km/h (2 Bft)
06.12.2013 01:44 1,6 C 0,0 C 93 % 1016,1 hPa 0,0 l/m 0 min 2 min 0,0 UV-I 0 W/m 12,9 km/h (3 Bft)
06.12.2013 01:46 1,6 C 0,0 C 93 % 1016,1 hPa 0,0 l/m 0 min 2 min 0,0 UV-I 0 W/m 12,9 km/h (3 Bft)
06.12.2013 01:48 1,6 C 0,0 C 93 % 1016,1 hPa 0,0 l/m 0 min 2 min 0,0 UV-I 0 W/m 12,9 km/h (3 Bft)
06.12.2013 01:50 1,6 C 0,0 C 93 % 1016,1 hPa 0,0 l/m 0 min 2 min 0,0 UV-I 0 W/m 15,4 km/h (3 Bft)
06.12.2013 01:52 1,6 C 0,0 C 94 % 1016,1 hPa 0,0 l/m 0 min 0 min 0,0 UV-I 0 W/m 7,7 km/h (2 Bft)
06.12.2013 01:54 1,6 C 0,6 C 94 % 1016,1 hPa 0,0 l/m 0 min 0 min 0,0 UV-I 0 W/m 10,3 km/h (2 Bft)
06.12.2013 01:56 1,6 C 0,6 C 94 % 1016,1 hPa 0,0 l/m 0 min 0 min 0,0 UV-I 0 W/m 20,6 km/h (4 Bft)
06.12.2013 01:58 1,6 C 0,6 C 94 % 1016,1 hPa 0,0 l/m 0 min 0 min 0,0 UV-I 0 W/m 15,4 km/h (3 Bft)
06.12.2013 02:00 1,6 C 0,6 C 94 % 1016,1 hPa 0,0 l/m 0 min 0 min 0,0 UV-I 0 W/m 0,0 km/h (0 Bft)
06.12.2013 02:02 1,6 C 0,6 C 94 % 1016,1 hPa 0,0 l/m 0 min 0 min 0,0 UV-I 0 W/m 10,3 km/h (2 Bft)
06.12.2013 02:04 1,6 C 0,6 C 94 % 1016,2 hPa 0,0 l/m 0 min 0 min 0,0 UV-I 0 W/m 5,1 km/h (1 Bft)
06.12.2013 02:06 1,6 C 0,6 C 94 % 1016,3 hPa 0,0 l/m 0 min 0 min 0,0 UV-I 0 W/m 7,7 km/h (2 Bft)
06.12.2013 02:08 1,6 C 0,6 C 94 % 1016,2 hPa 0,0 l/m 0 min 2 min 0,0 UV-I 0 W/m 15,4 km/h (3 Bft)
06.12.2013 02:10 1,6 C 0,6 C 94 % 1016,2 hPa 0,0 l/m 0 min 2 min 0,0 UV-I 0 W/m 7,7 km/h (2 Bft)
06.12.2013 02:12 1,6 C 0,6 C 94 % 1016,2 hPa 0,0 l/m 0 min 2 min 0,0 UV-I 0 W/m 25,7 km/h (4 Bft)
06.12.2013 02:14 1,7 C 0,6 C 94 % 1015,8 hPa 0,0 l/m 0 min 2 min 0,0 UV-I 0 W/m 18,0 km/h (3 Bft)
06.12.2013 02:16 1,7 C 0,6 C 94 % 1015,8 hPa 0,0 l/m 0 min 2 min 0,0 UV-I 0 W/m 18,0 km/h (3 Bft)
06.12.2013 02:18 1,7 C 0,6 C 94 % 1015,7 hPa 0,2 l/m 0 min 0 min 0,0 UV-I 0 W/m 7,7 km/h (2 Bft)
06.12.2013 02:20 1,7 C 0,6 C 94 % 1015,8 hPa 0,0 l/m 0 min 0 min 0,0 UV-I 0 W/m 5,1 km/h (1 Bft)
06.12.2013 02:22 1,6 C 0,6 C 94 % 1016,0 hPa 0,0 l/m 0 min 0 min 0,0 UV-I 0 W/m 7,7 km/h (2 Bft)
06.12.2013 02:24 1,6 C 0,6 C 94 % 1015,9 hPa 0,0 l/m 0 min 0 min 0,0 UV-I 0 W/m 2,6 km/h (1 Bft)
06.12.2013 02:26 1,6 C 0,6 C 94 % 1015,9 hPa 0,0 l/m 0 min 0 min 0,0 UV-I 0 W/m 5,1 km/h (1 Bft)
06.12.2013 02:28 1,7 C 0,6 C 94 % 1016,2 hPa 0,0 l/m 0 min 0 min 0,0 UV-I 0 W/m 0,0 km/h (0 Bft)
06.12.2013 02:30 1,6 C 0,6 C 95 % 1016,2 hPa 0,0 l/m 0 min 0 min 0,0 UV-I 0 W/m 5,1 km/h (1 Bft)
06.12.2013 02:32 1,6 C 0,6 C 95 % 1016,1 hPa 0,0 l/m 0 min 0 min 0,0 UV-I 0 W/m 5,1 km/h (1 Bft)
06.12.2013 02:34 1,6 C 0,6 C 95 % 1015,9 hPa 0,0 l/m 0 min 0 min 0,0 UV-I 0 W/m 5,1 km/h (1 Bft)
06.12.2013 02:36 1,6 C 0,0 C 95 % 1015,9 hPa 0,0 l/m 0 min 0 min 0,0 UV-I 0 W/m 0,0 km/h (0 Bft)
06.12.2013 02:38 1,6 C 0,0 C 95 % 1015,9 hPa 0,0 l/m 0 min 0 min 0,0 UV-I 0 W/m 0,0 km/h (0 Bft)
06.12.2013 02:40 1,6 C 0,0 C 95 % 1015,8 hPa 0,0 l/m 0 min 0 min 0,0 UV-I 0 W/m 0,0 km/h (0 Bft)
06.12.2013 02:42 1,6 C 0,0 C 95 % 1015,7 hPa 0,0 l/m 0 min 0 min 0,0 UV-I 0 W/m 5,1 km/h (1 Bft)
06.12.2013 02:44 1,6 C 0,0 C 95 % 1015,8 hPa 0,0 l/m 0 min 0 min 0,0 UV-I 0 W/m 5,1 km/h (1 Bft)
06.12.2013 02:46 1,5 C 0,0 C 95 % 1015,8 hPa 0,0 l/m 0 min 0 min 0,0 UV-I 0 W/m 5,1 km/h (1 Bft)
06.12.2013 02:48 1,5 C 0,0 C 95 % 1015,7 hPa 0,0 l/m 0 min 0 min 0,0 UV-I 0 W/m 0,0 km/h (0 Bft)
06.12.2013 02:50 1,5 C 0,0 C 95 % 1015,8 hPa 0,0 l/m 0 min 0 min 0,0 UV-I 0 W/m 0,0 km/h (0 Bft)
06.12.2013 02:52 1,4 C 0,0 C 95 % 1015,8 hPa 0,0 l/m 0 min 0 min 0,0 UV-I 0 W/m 5,1 km/h (1 Bft)
06.12.2013 02:54 1,4 C 0,0 C 95 % 1015,8 hPa 0,0 l/m 0 min 0 min 0,0 UV-I 0 W/m 0,0 km/h (0 Bft)
06.12.2013 02:56 1,4 C 0,6 C 95 % 1016,0 hPa 0,0 l/m 0 min 0 min 0,0 UV-I 0 W/m 0,0 km/h (0 Bft)
06.12.2013 02:58 1,4 C 0,6 C 95 % 1016,2 hPa 0,0 l/m 0 min 0 min 0,0 UV-I 0 W/m 18,0 km/h (3 Bft)
06.12.2013 03:00 1,4 C 0,6 C 95 % 1016,4 hPa 0,0 l/m 0 min 0 min 0,0 UV-I 0 W/m 15,4 km/h (3 Bft)
06.12.2013 03:02 1,4 C 0,0 C 95 % 1016,2 hPa 0,0 l/m 0 min 0 min 0,0 UV-I 0 W/m 12,9 km/h (3 Bft)
06.12.2013 03:04 1,4 C 0,0 C 95 % 1016,2 hPa 0,0 l/m 0 min 2 min 0,0 UV-I 0 W/m 12,9 km/h (3 Bft)
06.12.2013 03:06 1,4 C 0,0 C 95 % 1016,1 hPa 0,0 l/m 0 min 0 min 0,0 UV-I 0 W/m 0,0 km/h (0 Bft)
06.12.2013 03:08 1,4 C 0,6 C 95 % 1015,8 hPa 0,0 l/m 0 min 2 min 0,0 UV-I 0 W/m 5,1 km/h (1 Bft)
06.12.2013 03:10 1,4 C 0,0 C 95 % 1015,9 hPa 0,0 l/m 0 min 2 min 0,0 UV-I 0 W/m 0,0 km/h (0 Bft)
06.12.2013 03:12 1,4 C 0,0 C 95 % 1015,8 hPa 0,0 l/m 0 min 2 min 0,0 UV-I 0 W/m 12,9 km/h (3 Bft)
06.12.2013 03:14 1,4 C 0,0 C 95 % 1015,8 hPa 0,0 l/m 0 min 2 min 0,0 UV-I 0 W/m 12,9 km/h (3 Bft)
06.12.2013 03:16 1,4 C 0,0 C 95 % 1015,9 hPa 0,0 l/m 0 min 2 min 0,0 UV-I 0 W/m 18,0 km/h (3 Bft)
06.12.2013 03:18 1,4 C 0,0 C 95 % 1015,8 hPa 0,0 l/m 0 min 0 min 0,0 UV-I 0 W/m 10,3 km/h (2 Bft)
06.12.2013 03:20 1,4 C 0,0 C 95 % 1015,9 hPa 0,0 l/m 0 min 0 min 0,0 UV-I 0 W/m 5,1 km/h (1 Bft)
06.12.2013 03:22 1,4 C 0,0 C 95 % 1015,9 hPa 0,0 l/m 0 min 0 min 0,0 UV-I 0 W/m 15,4 km/h (3 Bft)
06.12.2013 03:24 1,4 C 0,0 C 95 % 1015,8 hPa 0,0 l/m 0 min 2 min 0,0 UV-I 0 W/m 2,6 km/h (1 Bft)
06.12.2013 03:26 1,4 C 0,0 C 95 % 1015,7 hPa 0,0 l/m 0 min 2 min 0,0 UV-I 0 W/m 10,3 km/h (2 Bft)
06.12.2013 03:28 1,4 C 0,0 C 95 % 1015,7 hPa 0,0 l/m 0 min 2 min 0,0 UV-I 0 W/m 5,1 km/h (1 Bft)
06.12.2013 03:30 1,3 C 0,0 C 95 % 1015,8 hPa 0,0 l/m 0 min 0 min 0,0 UV-I 0 W/m 0,0 km/h (0 Bft)
06.12.2013 03:32 1,3 C 0,0 C 95 % 1015,7 hPa 0,0 l/m 0 min 0 min 0,0 UV-I 0 W/m 5,1 km/h (1 Bft)
06.12.2013 03:34 1,3 C 0,0 C 95 % 1015,6 hPa 0,0 l/m 0 min 0 min 0,0 UV-I 0 W/m 7,7 km/h (2 Bft)
06.12.2013 03:36 1,3 C 0,0 C 95 % 1015,6 hPa 0,0 l/m 0 min 0 min 0,0 UV-I 0 W/m 12,9 km/h (3 Bft)
06.12.2013 03:38 1,3 C 0,0 C 95 % 1015,6 hPa 0,0 l/m 0 min 0 min 0,0 UV-I 0 W/m 10,3 km/h (2 Bft)
06.12.2013 03:40 1,3 C 0,0 C 95 % 1015,6 hPa 0,0 l/m 0 min 0 min 0,0 UV-I 0 W/m 0,0 km/h (0 Bft)
06.12.2013 03:42 1,3 C 0,0 C 95 % 1015,6 hPa 0,0 l/m 0 min 0 min 0,0 UV-I 0 W/m 10,3 km/h (2 Bft)
06.12.2013 03:44 1,3 C 0,0 C 95 % 1015,7 hPa 0,0 l/m 0 min 0 min 0,0 UV-I 0 W/m 18,0 km/h (3 Bft)
06.12.2013 03:46 1,3 C 0,0 C 95 % 1015,8 hPa 0,0 l/m 0 min 0 min 0,0 UV-I 0 W/m 5,1 km/h (1 Bft)
06.12.2013 03:48 1,4 C 0,0 C 95 % 1016,2 hPa 0,0 l/m 0 min 0 min 0,0 UV-I 0 W/m 15,4 km/h (3 Bft)
06.12.2013 03:50 1,4 C 0,0 C 95 % 1016,2 hPa 0,0 l/m 0 min 0 min 0,0 UV-I 0 W/m 12,9 km/h (3 Bft)
06.12.2013 03:52 1,4 C 0,0 C 95 % 1016,1 hPa 0,0 l/m 0 min 2 min 0,0 UV-I 0 W/m 20,6 km/h (4 Bft)
06.12.2013 03:54 1,4 C 0,0 C 95 % 1016,1 hPa 0,0 l/m 0 min 0 min 0,0 UV-I 0 W/m 5,1 km/h (1 Bft)
06.12.2013 03:56 1,5 C 0,0 C 95 % 1016,0 hPa 0,0 l/m 0 min 0 min 0,0 UV-I 0 W/m 2,6 km/h (1 Bft)
06.12.2013 03:58 1,5 C 0,0 C 95 % 1016,0 hPa 0,0 l/m 0 min 0 min 0,0 UV-I 0 W/m 0,0 km/h (0 Bft)
06.12.2013 04:00 1,5 C 0,0 C 95 % 1016,0 hPa 0,0 l/m 0 min 0 min 0,0 UV-I 0 W/m 7,7 km/h (2 Bft)
06.12.2013 04:02 1,5 C 0,0 C 95 % 1016,0 hPa 0,0 l/m 0 min 0 min 0,0 UV-I 0 W/m 0,0 km/h (0 Bft)
06.12.2013 04:08 1,5 C 0,0 C 95 % 1016,1 hPa 0,0 l/m 0 min 0 min 0,0 UV-I 0 W/m 10,3 km/h (2 Bft)
06.12.2013 04:10 1,5 C 0,0 C 95 % 1016,2 hPa 0,0 l/m 0 min 0 min 0,0 UV-I 0 W/m 15,4 km/h (3 Bft)
06.12.2013 04:12 1,4 C 0,0 C 95 % 1016,1 hPa 0,0 l/m 0 min 0 min 0,0 UV-I 0 W/m 10,3 km/h (2 Bft)
06.12.2013 04:14 1,5 C 0,0 C 95 % 1016,2 hPa 0,0 l/m 0 min 0 min 0,0 UV-I 0 W/m 7,7 km/h (2 Bft)
06.12.2013 04:16 1,5 C 0,0 C 95 % 1016,3 hPa 0,0 l/m 0 min 0 min 0,0 UV-I 0 W/m 15,4 km/h (3 Bft)
06.12.2013 04:18 1,5 C 0,0 C 95 % 1016,4 hPa 0,0 l/m 0 min 0 min 0,0 UV-I 0 W/m 10,3 km/h (2 Bft)
06.12.2013 04:20 1,5 C 0,0 C 95 % 1016,3 hPa 0,0 l/m 0 min 0 min 0,0 UV-I 0 W/m 15,4 km/h (3 Bft)
06.12.2013 04:22 1,6 C 0,0 C 94 % 1016,3 hPa 0,0 l/m 0 min 0 min 0,0 UV-I 0 W/m 12,9 km/h (3 Bft)
06.12.2013 04:24 1,6 C 0,0 C 94 % 1016,4 hPa 0,0 l/m 0 min 0 min 0,0 UV-I 0 W/m 7,7 km/h (2 Bft)
06.12.2013 04:26 1,6 C 0,0 C 94 % 1016,5 hPa 0,0 l/m 0 min 0 min 0,0 UV-I 0 W/m 2,6 km/h (1 Bft)
06.12.2013 04:28 1,6 C 0,0 C 94 % 1016,4 hPa 0,0 l/m 0 min 0 min 0,0 UV-I 0 W/m 5,1 km/h (1 Bft)
06.12.2013 04:30 1,6 C 0,0 C 94 % 1016,5 hPa 0,0 l/m 0 min 0 min 0,0 UV-I 0 W/m 7,7 km/h (2 Bft)
06.12.2013 04:32 1,6 C 0,0 C 94 % 1016,6 hPa 0,0 l/m 0 min 0 min 0,0 UV-I 0 W/m 10,3 km/h (2 Bft)
06.12.2013 04:34 1,6 C 0,0 C 94 % 1016,5 hPa 0,0 l/m 0 min 0 min 0,0 UV-I 0 W/m 23,2 km/h (4 Bft)
06.12.2013 04:36 1,6 C 0,0 C 94 % 1016,5 hPa 0,0 l/m 0 min 0 min 0,0 UV-I 0 W/m 10,3 km/h (2 Bft)
06.12.2013 04:38 1,6 C 0,0 C 94 % 1016,5 hPa 0,0 l/m 0 min 0 min 0,0 UV-I 0 W/m 12,9 km/h (3 Bft)
06.12.2013 04:40 1,6 C 0,0 C 94 % 1016,5 hPa 0,0 l/m 0 min 0 min 0,0 UV-I 0 W/m 18,0 km/h (3 Bft)
06.12.2013 04:42 1,6 C 0,0 C 93 % 1016,8 hPa 0,0 l/m 0 min 0 min 0,0 UV-I 0 W/m 12,9 km/h (3 Bft)
06.12.2013 04:44 1,7 C 0,0 C 93 % 1016,6 hPa 0,0 l/m 0 min 0 min 0,0 UV-I 0 W/m 10,3 km/h (2 Bft)
06.12.2013 04:46 1,7 C 0,0 C 93 % 1016,6 hPa 0,0 l/m 0 min 0 min 0,0 UV-I 0 W/m 2,6 km/h (1 Bft)
06.12.2013 04:48 1,7 C 0,0 C 93 % 1016,5 hPa 0,0 l/m 0 min 0 min 0,0 UV-I 0 W/m 30,9 km/h (5 Bft)
06.12.2013 04:50 1,8 C 0,6 C 93 % 1016,6 hPa 0,0 l/m 0 min 0 min 0,0 UV-I 0 W/m 18,0 km/h (3 Bft)
06.12.2013 04:52 1,9 C 0,6 C 92 % 1016,6 hPa 0,0 l/m 0 min 0 min 0,0 UV-I 0 W/m 15,4 km/h (3 Bft)
06.12.2013 04:54 1,9 C 0,6 C 92 % 1016,6 hPa 0,0 l/m 0 min 0 min 0,0 UV-I 0 W/m 12,9 km/h (3 Bft)
06.12.2013 04:56 1,9 C 0,6 C 92 % 1016,6 hPa 0,0 l/m 0 min 0 min 0,0 UV-I 0 W/m 28,3 km/h (4 Bft)
06.12.2013 04:58 2,0 C 0,6 C 92 % 1016,7 hPa 0,0 l/m 0 min 0 min 0,0 UV-I 0 W/m 12,9 km/h (3 Bft)
06.12.2013 05:00 2,0 C 0,6 C 91 % 1016,7 hPa 0,0 l/m 0 min 0 min 0,0 UV-I 0 W/m 15,4 km/h (3 Bft)
06.12.2013 05:02 2,1 C 0,6 C 91 % 1016,7 hPa 0,0 l/m 0 min 0 min 0,0 UV-I 0 W/m 18,0 km/h (3 Bft)
06.12.2013 05:04 2,1 C 0,6 C 90 % 1016,7 hPa 0,0 l/m 0 min 0 min 0,0 UV-I 0 W/m 15,4 km/h (3 Bft)
06.12.2013 05:06 2,1 C 0,6 C 90 % 1016,8 hPa 0,0 l/m 0 min 0 min 0,0 UV-I 0 W/m 10,3 km/h (2 Bft)
06.12.2013 05:08 2,2 C 0,6 C 89 % 1016,8 hPa 0,0 l/m 0 min 0 min 0,0 UV-I 0 W/m 15,4 km/h (3 Bft)
06.12.2013 05:10 2,2 C 0,6 C 89 % 1016,8 hPa 0,0 l/m 0 min 0 min 0,0 UV-I 0 W/m 20,6 km/h (4 Bft)
06.12.2013 05:12 2,2 C 0,6 C 89 % 1016,8 hPa 0,0 l/m 0 min 0 min 0,0 UV-I 0 W/m 18,0 km/h (3 Bft)
06.12.2013 05:14 2,2 C 0,6 C 88 % 1016,8 hPa 0,0 l/m 0 min 0 min 0,0 UV-I 0 W/m 18,0 km/h (3 Bft)
06.12.2013 05:16 2,3 C 0,6 C 88 % 1016,8 hPa 0,0 l/m 0 min 0 min 0,0 UV-I 0 W/m 10,3 km/h (2 Bft)
06.12.2013 05:18 2,3 C 0,6 C 88 % 1016,8 hPa 0,0 l/m 0 min 0 min 0,0 UV-I 0 W/m 12,9 km/h (3 Bft)
06.12.2013 05:20 2,3 C 0,6 C 87 % 1016,8 hPa 0,0 l/m 0 min 0 min 0,0 UV-I 0 W/m 18,0 km/h (3 Bft)
06.12.2013 05:22 2,3 C 0,6 C 87 % 1017,0 hPa 0,0 l/m 0 min 0 min 0,0 UV-I 0 W/m 28,3 km/h (4 Bft)
06.12.2013 05:24 2,4 C 0,6 C 87 % 1017,0 hPa 0,0 l/m 0 min 0 min 0,0 UV-I 0 W/m 18,0 km/h (3 Bft)
06.12.2013 05:26 2,4 C 0,6 C 86 % 1016,9 hPa 0,0 l/m 0 min 0 min 0,0 UV-I 0 W/m 18,0 km/h (3 Bft)
06.12.2013 05:28 2,4 C 0,6 C 86 % 1017,1 hPa 0,0 l/m 0 min 0 min 0,0 UV-I 0 W/m 10,3 km/h (2 Bft)
06.12.2013 05:30 2,4 C 0,6 C 86 % 1017,1 hPa 0,0 l/m 0 min 0 min 0,0 UV-I 0 W/m 20,6 km/h (4 Bft)
06.12.2013 05:32 2,5 C 0,6 C 86 % 1017,2 hPa 0,0 l/m 0 min 0 min 0,0 UV-I 0 W/m 5,1 km/h (1 Bft)
06.12.2013 05:34 2,5 C 0,6 C 85 % 1017,2 hPa 0,0 l/m 0 min 0 min 0,0 UV-I 0 W/m 7,7 km/h (2 Bft)
06.12.2013 05:36 2,5 C 0,6 C 85 % 1017,2 hPa 0,0 l/m 0 min 0 min 0,0 UV-I 0 W/m 15,4 km/h (3 Bft)
06.12.2013 05:38 2,5 C 0,6 C 85 % 1017,2 hPa 0,0 l/m 0 min 0 min 0,0 UV-I 0 W/m 2,6 km/h (1 Bft)
06.12.2013 05:40 2,5 C 0,6 C 85 % 1017,2 hPa 0,0 l/m 0 min 0 min 0,0 UV-I 0 W/m 7,7 km/h (2 Bft)
06.12.2013 05:42 2,5 C 0,6 C 85 % 1017,3 hPa 0,0 l/m 0 min 0 min 0,0 UV-I 0 W/m 5,1 km/h (1 Bft)
06.12.2013 05:44 2,5 C 0,6 C 85 % 1017,2 hPa 0,0 l/m 0 min 0 min 0,0 UV-I 0 W/m 0,0 km/h (0 Bft)
06.12.2013 05:46 2,5 C 0,6 C 85 % 1017,3 hPa 0,0 l/m 0 min 0 min 0,0 UV-I 0 W/m 18,0 km/h (3 Bft)
06.12.2013 05:48 2,5 C 0,6 C 85 % 1017,1 hPa 0,0 l/m 0 min 0 min 0,0 UV-I 0 W/m 5,1 km/h (1 Bft)
06.12.2013 05:50 2,4 C 0,6 C 85 % 1017,2 hPa 0,0 l/m 0 min 0 min 0,0 UV-I 0 W/m 5,1 km/h (1 Bft)
06.12.2013 05:52 2,5 C 0,6 C 85 % 1017,1 hPa 0,0 l/m 0 min 0 min 0,0 UV-I 0 W/m 2,6 km/h (1 Bft)
06.12.2013 05:54 2,4 C 0,6 C 85 % 1017,2 hPa 0,0 l/m 0 min 0 min 0,0 UV-I 0 W/m 2,6 km/h (1 Bft)
06.12.2013 05:56 2,4 C 0,6 C 85 % 1017,2 hPa 0,0 l/m 0 min 0 min 0,0 UV-I 0 W/m 15,4 km/h (3 Bft)
06.12.2013 05:58 2,4 C 0,6 C 85 % 1017,3 hPa 0,0 l/m 0 min 0 min 0,0 UV-I 0 W/m 10,3 km/h (2 Bft)
06.12.2013 06:00 2,4 C 0,6 C 85 % 1017,4 hPa 0,0 l/m 0 min 0 min 0,0 UV-I 0 W/m 10,3 km/h (2 Bft)
06.12.2013 06:02 2,4 C 0,6 C 86 % 1017,4 hPa 0,0 l/m 0 min 0 min 0,0 UV-I 0 W/m 7,7 km/h (2 Bft)
06.12.2013 06:04 2,4 C 0,6 C 86 % 1017,4 hPa 0,0 l/m 0 min 2 min 0,0 UV-I 0 W/m 15,4 km/h (3 Bft)
06.12.2013 06:06 2,4 C 0,6 C 86 % 1017,4 hPa 0,0 l/m 0 min 2 min 0,0 UV-I 0 W/m 10,3 km/h (2 Bft)
06.12.2013 06:08 2,4 C 0,6 C 87 % 1017,5 hPa 0,0 l/m 0 min 2 min 0,0 UV-I 0 W/m 18,0 km/h (3 Bft)
06.12.2013 06:10 2,3 C 0,6 C 87 % 1017,5 hPa 0,0 l/m 0 min 2 min 0,0 UV-I 0 W/m 5,1 km/h (1 Bft)
06.12.2013 06:12 2,3 C 0,6 C 87 % 1017,5 hPa 0,0 l/m 0 min 0 min 0,0 UV-I 0 W/m 10,3 km/h (2 Bft)
06.12.2013 06:14 2,3 C 0,6 C 88 % 1017,5 hPa 0,0 l/m 0 min 0 min 0,0 UV-I 0 W/m 12,9 km/h (3 Bft)
06.12.2013 06:16 2,3 C 0,6 C 88 % 1017,6 hPa 0,0 l/m 0 min 2 min 0,0 UV-I 0 W/m 15,4 km/h (3 Bft)
06.12.2013 06:18 2,3 C 0,6 C 88 % 1017,6 hPa 0,0 l/m 0 min 2 min 0,0 UV-I 0 W/m 10,3 km/h (2 Bft)
06.12.2013 06:20 2,2 C 0,6 C 88 % 1017,7 hPa 0,0 l/m 0 min 2 min 0,0 UV-I 0 W/m 18,0 km/h (3 Bft)
06.12.2013 06:22 2,2 C 0,0 C 89 % 1017,7 hPa 0,0 l/m 0 min 2 min 0,0 UV-I 0 W/m 18,0 km/h (3 Bft)
06.12.2013 06:24 2,1 C -0,6 C 89 % 1017,7 hPa 0,0 l/m 0 min 2 min 0,0 UV-I 0 W/m 7,7 km/h (2 Bft)
06.12.2013 06:26 2,1 C -0,6 C 89 % 1017,7 hPa 0,0 l/m 0 min 2 min 0,0 UV-I 0 W/m 12,9 km/h (3 Bft)
06.12.2013 06:28 2,0 C -0,6 C 89 % 1017,8 hPa 0,0 l/m 0 min 2 min 0,0 UV-I 0 W/m 7,7 km/h (2 Bft)
06.12.2013 06:30 1,9 C -0,6 C 90 % 1017,8 hPa 0,0 l/m 0 min 2 min 0,0 UV-I 0 W/m 0,0 km/h (0 Bft)
06.12.2013 06:32 1,8 C -0,6 C 90 % 1017,7 hPa 0,0 l/m 0 min 2 min 0,0 UV-I 0 W/m 18,0 km/h (3 Bft)
06.12.2013 06:34 1,8 C -0,6 C 90 % 1017,7 hPa 0,0 l/m 0 min 2 min 0,0 UV-I 0 W/m 2,6 km/h (1 Bft)
06.12.2013 06:36 1,7 C -0,6 C 90 % 1017,7 hPa 0,0 l/m 0 min 2 min 0,0 UV-I 0 W/m 2,6 km/h (1 Bft)
06.12.2013 06:38 1,7 C -0,6 C 91 % 1017,7 hPa 0,0 l/m 0 min 2 min 0,0 UV-I 0 W/m 15,4 km/h (3 Bft)
06.12.2013 06:40 1,6 C -0,6 C 91 % 1017,8 hPa 0,0 l/m 0 min 2 min 0,0 UV-I 0 W/m 5,1 km/h (1 Bft)
06.12.2013 06:42 1,6 C -0,6 C 91 % 1017,8 hPa 0,0 l/m 0 min 2 min 0,0 UV-I 0 W/m 0,0 km/h (0 Bft)
06.12.2013 06:44 1,5 C -0,6 C 91 % 1017,8 hPa 0,0 l/m 0 min 2 min 0,0 UV-I 0 W/m 0,0 km/h (0 Bft)
06.12.2013 06:46 1,5 C -0,6 C 91 % 1017,9 hPa 0,0 l/m 0 min 2 min 0,0 UV-I 0 W/m 0,0 km/h (0 Bft)
06.12.2013 06:48 1,4 C -0,6 C 91 % 1017,9 hPa 0,0 l/m 0 min 2 min 0,0 UV-I 0 W/m 0,0 km/h (0 Bft)
06.12.2013 06:50 1,4 C -0,6 C 91 % 1017,8 hPa 0,0 l/m 0 min 2 min 0,0 UV-I 0 W/m 0,0 km/h (0 Bft)
06.12.2013 06:52 1,4 C -0,6 C 92 % 1018,1 hPa 0,0 l/m 0 min 2 min 0,0 UV-I 0 W/m 0,0 km/h (0 Bft)
06.12.2013 06:54 1,3 C -0,6 C 92 % 1018,2 hPa 0,0 l/m 0 min 2 min 0,0 UV-I 0 W/m 0,0 km/h (0 Bft)
06.12.2013 06:56 1,3 C -0,6 C 92 % 1018,1 hPa 0,0 l/m 0 min 2 min 0,0 UV-I 0 W/m 0,0 km/h (0 Bft)
06.12.2013 06:58 1,3 C -0,6 C 92 % 1018,1 hPa 0,0 l/m 0 min 2 min 0,0 UV-I 0 W/m 0,0 km/h (0 Bft)
06.12.2013 07:00 1,3 C -0,6 C 92 % 1018,2 hPa 0,0 l/m 0 min 2 min 0,0 UV-I 0 W/m 5,1 km/h (1 Bft)
06.12.2013 07:02 1,2 C -1,1 C 92 % 1018,2 hPa 0,0 l/m 0 min 2 min 0,0 UV-I 0 W/m 0,0 km/h (0 Bft)
06.12.2013 07:04 1,2 C -1,1 C 92 % 1018,2 hPa 0,0 l/m 0 min 2 min 0,0 UV-I 0 W/m 2,6 km/h (1 Bft)
06.12.2013 07:06 1,2 C -0,6 C 92 % 1018,2 hPa 0,0 l/m 0 min 2 min 0,0 UV-I 0 W/m 7,7 km/h (2 Bft)
06.12.2013 07:08 1,2 C -0,6 C 92 % 1018,2 hPa 0,0 l/m 0 min 2 min 0,0 UV-I 0 W/m 5,1 km/h (1 Bft)
06.12.2013 07:10 1,1 C -0,6 C 92 % 1018,3 hPa 0,0 l/m 0 min 2 min 0,0 UV-I 0 W/m 0,0 km/h (0 Bft)
06.12.2013 07:12 1,1 C -0,6 C 92 % 1018,3 hPa 0,0 l/m 0 min 2 min 0,0 UV-I 0 W/m 5,1 km/h (1 Bft)
06.12.2013 07:14 1,1 C -0,6 C 92 % 1018,3 hPa 0,0 l/m 0 min 2 min 0,0 UV-I 0 W/m 7,7 km/h (2 Bft)
06.12.2013 07:16 1,1 C -0,6 C 93 % 1018,3 hPa 0,0 l/m 0 min 0 min 0,0 UV-I 0 W/m 5,1 km/h (1 Bft)
06.12.2013 07:18 1,0 C -0,6 C 93 % 1018,2 hPa 0,0 l/m 0 min 0 min 0,0 UV-I 0 W/m 0,0 km/h (0 Bft)
06.12.2013 07:20 1,0 C -0,6 C 93 % 1018,3 hPa 0,0 l/m 0 min 2 min 0,0 UV-I 0 W/m 7,7 km/h (2 Bft)
06.12.2013 07:22 1,0 C -0,6 C 93 % 1018,2 hPa 0,0 l/m 0 min 2 min 0,0 UV-I 0 W/m 5,1 km/h (1 Bft)
06.12.2013 07:24 1,0 C -0,6 C 93 % 1018,2 hPa 0,0 l/m 0 min 2 min 0,0 UV-I 0 W/m 10,3 km/h (2 Bft)
06.12.2013 07:26 1,0 C -0,6 C 93 % 1018,2 hPa 0,0 l/m 0 min 2 min 0,0 UV-I 0 W/m 2,6 km/h (1 Bft)
06.12.2013 07:28 1,0 C -0,6 C 93 % 1018,3 hPa 0,0 l/m 0 min 2 min 0,0 UV-I 0 W/m 7,7 km/h (2 Bft)
06.12.2013 07:30 1,0 C -0,6 C 93 % 1018,2 hPa 0,0 l/m 0 min 2 min 0,0 UV-I 0 W/m 0,0 km/h (0 Bft)
06.12.2013 07:32 1,0 C -0,6 C 93 % 1018,2 hPa 0,0 l/m 0 min 2 min 0,0 UV-I 0 W/m 2,6 km/h (1 Bft)
06.12.2013 07:34 1,0 C -0,6 C 93 % 1018,3 hPa 0,0 l/m 0 min 2 min 0,0 UV-I 0 W/m 0,0 km/h (0 Bft)
06.12.2013 07:36 1,0 C -0,6 C 93 % 1018,4 hPa 0,0 l/m 0 min 2 min 0,0 UV-I 0 W/m 0,0 km/h (0 Bft)
06.12.2013 07:38 1,0 C -0,6 C 94 % 1018,4 hPa 0,0 l/m 0 min 2 min 0,0 UV-I 0 W/m 2,6 km/h (1 Bft)
06.12.2013 07:40 1,0 C -0,6 C 94 % 1018,4 hPa 0,0 l/m 0 min 2 min 0,0 UV-I 0 W/m 5,1 km/h (1 Bft)
06.12.2013 07:42 1,0 C -0,6 C 94 % 1018,4 hPa 0,0 l/m 0 min 2 min 0,0 UV-I 0 W/m 0,0 km/h (0 Bft)
06.12.2013 07:44 1,0 C -0,6 C 94 % 1018,4 hPa 0,0 l/m 0 min 2 min 0,0 UV-I 0 W/m 0,0 km/h (0 Bft)
06.12.2013 07:46 1,0 C -0,6 C 94 % 1018,4 hPa 0,0 l/m 0 min 0 min 0,0 UV-I 0 W/m 0,0 km/h (0 Bft)
06.12.2013 07:48 0,9 C -0,6 C 94 % 1018,4 hPa 0,0 l/m 0 min 0 min 0,0 UV-I 0 W/m 0,0 km/h (0 Bft)
06.12.2013 07:50 0,9 C -0,6 C 94 % 1018,4 hPa 0,0 l/m 0 min 2 min 0,0 UV-I 0 W/m 5,1 km/h (1 Bft)
06.12.2013 07:52 0,9 C -0,6 C 94 % 1018,5 hPa 0,0 l/m 0 min 2 min 0,0 UV-I 0 W/m 0,0 km/h (0 Bft)
06.12.2013 07:54 0,9 C -0,6 C 94 % 1018,4 hPa 0,0 l/m 0 min 2 min 0,0 UV-I 0 W/m 2,6 km/h (1 Bft)
06.12.2013 07:56 0,9 C -0,6 C 94 % 1018,4 hPa 0,0 l/m 0 min 2 min 0,0 UV-I 0 W/m 5,1 km/h (1 Bft)
06.12.2013 07:58 0,9 C -0,6 C 94 % 1018,5 hPa 0,0 l/m 0 min 2 min 0,0 UV-I 0 W/m 0,0 km/h (0 Bft)
06.12.2013 08:00 0,9 C -0,6 C 94 % 1018,5 hPa 0,0 l/m 0 min 2 min 0,0 UV-I 0 W/m 0,0 km/h (0 Bft)
06.12.2013 08:02 0,9 C -0,6 C 94 % 1018,5 hPa 0,0 l/m 0 min 0 min 0,0 UV-I 0 W/m 10,3 km/h (2 Bft)
06.12.2013 08:04 0,9 C -0,6 C 94 % 1018,6 hPa 0,0 l/m 0 min 0 min 0,0 UV-I 0 W/m 12,9 km/h (3 Bft)
06.12.2013 08:06 0,9 C -0,6 C 94 % 1018,5 hPa 0,2 l/m 0 min 2 min 0,0 UV-I 0 W/m 7,7 km/h (2 Bft)
06.12.2013 08:08 0,9 C -0,6 C 94 % 1018,4 hPa 0,0 l/m 0 min 2 min 0,0 UV-I 0 W/m 5,1 km/h (1 Bft)
06.12.2013 08:10 0,9 C -0,6 C 94 % 1018,4 hPa 0,0 l/m 0 min 2 min 0,0 UV-I 0 W/m 0,0 km/h (0 Bft)
06.12.2013 08:12 0,9 C -0,6 C 94 % 1018,5 hPa 0,0 l/m 0 min 2 min 0,0 UV-I 0 W/m 0,0 km/h (0 Bft)
06.12.2013 08:14 0,9 C -0,6 C 94 % 1018,5 hPa 0,0 l/m 0 min 0 min 0,0 UV-I 0 W/m 2,6 km/h (1 Bft)
06.12.2013 08:16 0,9 C -0,6 C 95 % 1018,5 hPa 0,0 l/m 0 min 2 min 0,0 UV-I 0 W/m 7,7 km/h (2 Bft)
06.12.2013 08:18 0,9 C 0,0 C 95 % 1018,6 hPa 0,0 l/m 0 min 0 min 0,0 UV-I 0 W/m 0,0 km/h (0 Bft)
06.12.2013 08:20 0,9 C 0,0 C 95 % 1018,6 hPa 0,0 l/m 0 min 0 min 0,0 UV-I 0 W/m 2,6 km/h (1 Bft)
06.12.2013 08:22 0,9 C 0,0 C 95 % 1018,6 hPa 0,0 l/m 0 min 0 min 0,0 UV-I 0 W/m 2,6 km/h (1 Bft)
06.12.2013 08:24 0,9 C 0,0 C 95 % 1018,6 hPa 0,0 l/m 0 min 0 min 0,0 UV-I 0 W/m 2,6 km/h (1 Bft)
06.12.2013 08:26 0,9 C 0,0 C 95 % 1018,6 hPa 0,0 l/m 0 min 0 min 0,0 UV-I 0 W/m 0,0 km/h (0 Bft)
06.12.2013 08:28 0,9 C 0,0 C 95 % 1018,7 hPa 0,0 l/m 0 min 0 min 0,0 UV-I 0 W/m 0,0 km/h (0 Bft)
06.12.2013 08:30 0,9 C 0,0 C 95 % 1018,7 hPa 0,0 l/m 0 min 0 min 0,0 UV-I 0 W/m 5,1 km/h (1 Bft)
06.12.2013 08:32 0,9 C 0,0 C 95 % 1018,7 hPa 0,0 l/m 0 min 0 min 0,0 UV-I 0 W/m 0,0 km/h (0 Bft)
06.12.2013 08:34 0,9 C 0,0 C 95 % 1018,7 hPa 0,0 l/m 0 min 0 min 0,0 UV-I 0 W/m 5,1 km/h (1 Bft)
06.12.2013 08:36 0,9 C 0,0 C 95 % 1018,7 hPa 0,0 l/m 0 min 2 min 0,0 UV-I 0 W/m 5,1 km/h (1 Bft)
06.12.2013 08:38 0,9 C 0,0 C 95 % 1018,7 hPa 0,0 l/m 0 min 0 min 0,0 UV-I 0 W/m 2,6 km/h (1 Bft)
06.12.2013 08:40 1,0 C 0,0 C 95 % 1018,9 hPa 0,0 l/m 0 min 0 min 0,0 UV-I 0 W/m 7,7 km/h (2 Bft)
06.12.2013 08:42 1,0 C 0,0 C 95 % 1018,9 hPa 0,0 l/m 0 min 2 min 0,0 UV-I 0 W/m 7,7 km/h (2 Bft)
06.12.2013 08:44 1,0 C 0,0 C 95 % 1018,9 hPa 0,0 l/m 0 min 2 min 0,0 UV-I 0 W/m 12,9 km/h (3 Bft)
06.12.2013 08:46 1,0 C 0,0 C 95 % 1018,9 hPa 0,0 l/m 0 min 2 min 0,0 UV-I 0 W/m 7,7 km/h (2 Bft)
06.12.2013 08:48 1,0 C 0,0 C 95 % 1018,9 hPa 0,0 l/m 0 min 2 min 0,0 UV-I 0 W/m 0,0 km/h (0 Bft)
06.12.2013 08:50 1,0 C 0,0 C 95 % 1018,8 hPa 0,2 l/m 0 min 2 min 0,0 UV-I 0 W/m 0,0 km/h (0 Bft)
06.12.2013 08:52 1,0 C -0,6 C 95 % 1019,0 hPa 0,0 l/m 0 min 2 min 0,0 UV-I 0 W/m 0,0 km/h (0 Bft)
06.12.2013 08:54 1,1 C -0,6 C 95 % 1018,9 hPa 0,0 l/m 0 min 2 min 0,0 UV-I 0 W/m 5,1 km/h (1 Bft)
06.12.2013 08:56 1,1 C -0,6 C 95 % 1018,9 hPa 0,0 l/m 0 min 2 min 0,0 UV-I 0 W/m 0,0 km/h (0 Bft)
06.12.2013 08:58 1,0 C -0,6 C 95 % 1018,9 hPa 0,0 l/m 0 min 2 min 0,0 UV-I 0 W/m 0,0 km/h (0 Bft)
06.12.2013 09:00 1,0 C -0,6 C 95 % 1019,0 hPa 0,0 l/m 0 min 2 min 0,0 UV-I 0 W/m 7,7 km/h (2 Bft)
06.12.2013 09:02 1,0 C -0,6 C 95 % 1019,0 hPa 0,0 l/m 0 min 2 min 0,0 UV-I 0 W/m 7,7 km/h (2 Bft)
06.12.2013 09:04 1,0 C -0,6 C 95 % 1019,1 hPa 0,0 l/m 0 min 2 min 0,0 UV-I 0 W/m 5,1 km/h (1 Bft)
06.12.2013 09:06 1,0 C -0,6 C 95 % 1019,1 hPa 0,2 l/m 0 min 2 min 0,0 UV-I 0 W/m 5,1 km/h (1 Bft)
06.12.2013 09:08 1,0 C -0,6 C 95 % 1019,1 hPa 0,0 l/m 0 min 2 min 0,0 UV-I 5 W/m 5,1 km/h (1 Bft)
06.12.2013 09:10 1,0 C -0,6 C 95 % 1019,1 hPa 0,0 l/m 0 min 2 min 0,0 UV-I 5 W/m 0,0 km/h (0 Bft)
06.12.2013 09:12 0,9 C -0,6 C 95 % 1019,2 hPa 0,0 l/m 0 min 2 min 0,0 UV-I 5 W/m 2,6 km/h (1 Bft)
06.12.2013 09:14 0,9 C -0,6 C 95 % 1019,2 hPa 0,0 l/m 0 min 2 min 0,0 UV-I 5 W/m 0,0 km/h (0 Bft)
06.12.2013 09:16 0,9 C -0,6 C 95 % 1019,2 hPa 0,0 l/m 0 min 2 min 0,0 UV-I 5 W/m 7,7 km/h (2 Bft)
06.12.2013 09:18 0,9 C -0,6 C 95 % 1019,2 hPa 0,0 l/m 0 min 2 min 0,0 UV-I 5 W/m 2,6 km/h (1 Bft)
06.12.2013 09:20 0,9 C -0,6 C 95 % 1019,3 hPa 0,0 l/m 0 min 2 min 0,0 UV-I 5 W/m 0,0 km/h (0 Bft)
06.12.2013 09:22 0,9 C -0,6 C 95 % 1019,3 hPa 0,0 l/m 0 min 2 min 0,0 UV-I 5 W/m 0,0 km/h (0 Bft)
06.12.2013 09:24 0,9 C -0,6 C 95 % 1019,1 hPa 0,0 l/m 0 min 2 min 0,0 UV-I 7 W/m 7,7 km/h (2 Bft)
06.12.2013 09:26 0,9 C -0,6 C 95 % 1019,3 hPa 0,0 l/m 0 min 2 min 0,0 UV-I 5 W/m 0,0 km/h (0 Bft)
06.12.2013 09:28 0,9 C -0,6 C 95 % 1019,3 hPa 0,2 l/m 0 min 2 min 0,0 UV-I 5 W/m 10,3 km/h (2 Bft)
06.12.2013 09:30 0,9 C -0,6 C 95 % 1019,2 hPa 0,0 l/m 0 min 2 min 0,0 UV-I 0 W/m 2,6 km/h (1 Bft)
06.12.2013 09:32 0,8 C -0,6 C 95 % 1019,2 hPa 0,0 l/m 0 min 2 min 0,0 UV-I 5 W/m 2,6 km/h (1 Bft)
06.12.2013 09:34 0,8 C -0,6 C 96 % 1019,3 hPa 0,0 l/m 0 min 2 min 0,0 UV-I 5 W/m 10,3 km/h (2 Bft)
06.12.2013 09:36 0,8 C -1,1 C 96 % 1019,4 hPa 0,0 l/m 0 min 2 min 0,0 UV-I 5 W/m 2,6 km/h (1 Bft)
06.12.2013 09:38 0,8 C -1,1 C 96 % 1019,5 hPa 0,0 l/m 0 min 2 min 0,0 UV-I 5 W/m 0,0 km/h (0 Bft)
06.12.2013 09:40 0,8 C -1,1 C 96 % 1019,4 hPa 0,0 l/m 0 min 2 min 0,0 UV-I 5 W/m 7,7 km/h (2 Bft)
06.12.2013 09:42 0,8 C -1,1 C 96 % 1019,5 hPa 0,0 l/m 0 min 2 min 0,0 UV-I 7 W/m 10,3 km/h (2 Bft)
06.12.2013 09:44 0,7 C -1,1 C 96 % 1019,5 hPa 0,0 l/m 0 min 2 min 0,0 UV-I 7 W/m 7,7 km/h (2 Bft)
06.12.2013 09:46 0,7 C -1,1 C 96 % 1019,5 hPa 0,0 l/m 0 min 2 min 0,0 UV-I 9 W/m 18,0 km/h (3 Bft)
06.12.2013 09:48 0,7 C -1,1 C 95 % 1019,4 hPa 0,0 l/m 0 min 2 min 0,0 UV-I 16 W/m 5,1 km/h (1 Bft)
06.12.2013 09:50 0,6 C -1,1 C 95 % 1019,4 hPa 0,0 l/m 0 min 2 min 0,0 UV-I 18 W/m 7,7 km/h (2 Bft)
06.12.2013 09:52 0,6 C -0,6 C 96 % 1019,4 hPa 0,2 l/m 0 min 2 min 0,0 UV-I 11 W/m 7,7 km/h (2 Bft)
06.12.2013 09:54 0,6 C -1,1 C 96 % 1019,6 hPa 0,0 l/m 0 min 2 min 0,0 UV-I 11 W/m 28,3 km/h (4 Bft)
06.12.2013 09:56 0,6 C -0,6 C 96 % 1019,5 hPa 0,0 l/m 0 min 2 min 0,0 UV-I 11 W/m 15,4 km/h (3 Bft)
06.12.2013 09:58 0,6 C -0,6 C 96 % 1019,5 hPa 0,0 l/m 0 min 2 min 0,0 UV-I 9 W/m 10,3 km/h (2 Bft)
06.12.2013 10:00 0,6 C -0,6 C 96 % 1019,5 hPa 0,0 l/m 0 min 2 min 0,0 UV-I 12 W/m 15,4 km/h (3 Bft)
06.12.2013 10:02 0,6 C -0,6 C 96 % 1019,4 hPa 0,0 l/m 0 min 2 min 0,0 UV-I 14 W/m 12,9 km/h (3 Bft)
06.12.2013 10:04 0,6 C -0,6 C 96 % 1019,4 hPa 0,0 l/m 0 min 2 min 0,0 UV-I 26 W/m 15,4 km/h (3 Bft)
06.12.2013 10:06 0,5 C -0,6 C 96 % 1019,4 hPa 0,0 l/m 0 min 2 min 0,0 UV-I 40 W/m 15,4 km/h (3 Bft)
06.12.2013 10:08 0,5 C -0,6 C 96 % 1019,5 hPa 0,2 l/m 0 min 2 min 0,0 UV-I 33 W/m 10,3 km/h (2 Bft)
06.12.2013 10:10 0,6 C -0,6 C 96 % 1019,7 hPa 0,0 l/m 0 min 2 min 0,0 UV-I 32 W/m 25,7 km/h (4 Bft)
06.12.2013 10:12 0,6 C -0,6 C 96 % 1019,8 hPa 0,0 l/m 0 min 2 min 0,0 UV-I 39 W/m 12,9 km/h (3 Bft)
06.12.2013 10:14 0,6 C -0,6 C 96 % 1019,7 hPa 0,0 l/m 0 min 0 min 0,0 UV-I 40 W/m 2,6 km/h (1 Bft)
06.12.2013 10:16 0,7 C 0,0 C 96 % 1019,6 hPa 0,2 l/m 0 min 2 min 0,0 UV-I 39 W/m 12,9 km/h (3 Bft)
06.12.2013 10:18 0,7 C 0,0 C 96 % 1019,8 hPa 0,0 l/m 0 min 2 min 0,0 UV-I 23 W/m 5,1 km/h (1 Bft)
06.12.2013 10:20 0,7 C 0,0 C 96 % 1019,8 hPa 0,0 l/m 0 min 0 min 0,0 UV-I 16 W/m 2,6 km/h (1 Bft)
06.12.2013 10:22 0,7 C -0,6 C 96 % 1019,8 hPa 0,0 l/m 0 min 2 min 0,0 UV-I 16 W/m 18,0 km/h (3 Bft)
06.12.2013 10:24 0,7 C -0,6 C 96 % 1019,8 hPa 0,0 l/m 0 min 2 min 0,0 UV-I 16 W/m 10,3 km/h (2 Bft)
06.12.2013 10:26 0,7 C -0,6 C 96 % 1019,8 hPa 0,0 l/m 0 min 2 min 0,0 UV-I 14 W/m 2,6 km/h (1 Bft)
06.12.2013 10:28 0,7 C -0,6 C 96 % 1019,7 hPa 0,2 l/m 0 min 2 min 0,0 UV-I 19 W/m 5,1 km/h (1 Bft)
06.12.2013 10:30 0,7 C -0,6 C 96 % 1019,8 hPa 0,0 l/m 0 min 2 min 0,0 UV-I 19 W/m 7,7 km/h (2 Bft)
06.12.2013 10:32 0,7 C -0,6 C 96 % 1019,8 hPa 0,0 l/m 0 min 2 min 0,0 UV-I 19 W/m 0,0 km/h (0 Bft)
06.12.2013 10:34 0,7 C -0,6 C 96 % 1019,8 hPa 0,0 l/m 0 min 2 min 0,0 UV-I 19 W/m 10,3 km/h (2 Bft)
06.12.2013 10:36 0,7 C -0,6 C 96 % 1019,8 hPa 0,0 l/m 0 min 2 min 0,0 UV-I 25 W/m 5,1 km/h (1 Bft)
06.12.2013 10:38 0,7 C 0,0 C 96 % 1019,8 hPa 0,0 l/m 0 min 2 min 0,0 UV-I 33 W/m 20,6 km/h (4 Bft)
06.12.2013 10:40 0,8 C 0,0 C 96 % 1019,8 hPa 0,2 l/m 0 min 2 min 0,0 UV-I 25 W/m 20,6 km/h (4 Bft)
06.12.2013 10:42 0,8 C 0,0 C 96 % 1019,9 hPa 0,0 l/m 0 min 2 min 0,0 UV-I 12 W/m 15,4 km/h (3 Bft)
06.12.2013 10:44 0,8 C -0,6 C 96 % 1019,9 hPa 0,0 l/m 0 min 2 min 0,0 UV-I 11 W/m 7,7 km/h (2 Bft)
06.12.2013 10:46 0,8 C -0,6 C 96 % 1020,0 hPa 0,0 l/m 0 min 2 min 0,0 UV-I 19 W/m 18,0 km/h (3 Bft)
06.12.2013 10:48 0,8 C -0,6 C 96 % 1020,0 hPa 0,0 l/m 0 min 2 min 0,0 UV-I 33 W/m 7,7 km/h (2 Bft)
06.12.2013 10:50 0,8 C -0,6 C 96 % 1019,9 hPa 0,0 l/m 0 min 2 min 0,0 UV-I 33 W/m 7,7 km/h (2 Bft)
06.12.2013 10:52 0,7 C -0,6 C 96 % 1019,9 hPa 0,0 l/m 0 min 2 min 0,0 UV-I 42 W/m 10,3 km/h (2 Bft)
06.12.2013 10:54 0,7 C -0,6 C 96 % 1020,0 hPa 0,0 l/m 0 min 2 min 0,0 UV-I 40 W/m 18,0 km/h (3 Bft)
06.12.2013 10:56 0,7 C -0,6 C 96 % 1019,9 hPa 0,0 l/m 0 min 2 min 0,0 UV-I 39 W/m 20,6 km/h (4 Bft)
06.12.2013 10:58 0,7 C -0,6 C 96 % 1019,9 hPa 0,0 l/m 0 min 2 min 0,0 UV-I 51 W/m 10,3 km/h (2 Bft)
06.12.2013 11:00 0,8 C 0,0 C 96 % 1020,0 hPa 0,0 l/m 0 min 2 min 0,0 UV-I 67 W/m 28,3 km/h (4 Bft)
06.12.2013 11:02 0,8 C 0,0 C 96 % 1019,8 hPa 0,2 l/m 0 min 2 min 0,0 UV-I 60 W/m 5,1 km/h (1 Bft)
06.12.2013 11:04 0,8 C 0,0 C 96 % 1019,9 hPa 0,0 l/m 0 min 0 min 0,0 UV-I 21 W/m 7,7 km/h (2 Bft)
06.12.2013 11:06 0,8 C 0,0 C 96 % 1020,1 hPa 0,0 l/m 0 min 0 min 0,0 UV-I 19 W/m 10,3 km/h (2 Bft)
06.12.2013 11:08 0,8 C 0,0 C 96 % 1020,3 hPa 0,0 l/m 0 min 2 min 0,0 UV-I 19 W/m 10,3 km/h (2 Bft)
06.12.2013 11:10 0,9 C 0,0 C 96 % 1020,2 hPa 0,0 l/m 0 min 2 min 0,0 UV-I 14 W/m 7,7 km/h (2 Bft)
06.12.2013 11:12 0,9 C 0,0 C 96 % 1020,4 hPa 0,0 l/m 0 min 0 min 0,0 UV-I 14 W/m 5,1 km/h (1 Bft)
06.12.2013 11:14 0,9 C 0,0 C 96 % 1020,4 hPa 0,0 l/m 0 min 2 min 0,0 UV-I 12 W/m 10,3 km/h (2 Bft)
06.12.2013 11:16 0,9 C -0,6 C 96 % 1020,4 hPa 0,0 l/m 0 min 2 min 0,0 UV-I 18 W/m 7,7 km/h (2 Bft)
06.12.2013 11:18 0,9 C -0,6 C 96 % 1020,3 hPa 0,0 l/m 0 min 2 min 0,0 UV-I 23 W/m 10,3 km/h (2 Bft)
06.12.2013 11:20 0,9 C -0,6 C 96 % 1020,2 hPa 0,0 l/m 0 min 2 min 0,0 UV-I 23 W/m 10,3 km/h (2 Bft)
06.12.2013 11:22 0,8 C -0,6 C 96 % 1020,1 hPa 0,2 l/m 0 min 2 min 0,0 UV-I 28 W/m 10,3 km/h (2 Bft)
06.12.2013 11:24 0,8 C -0,6 C 96 % 1020,1 hPa 0,0 l/m 0 min 2 min 0,0 UV-I 28 W/m 2,6 km/h (1 Bft)
06.12.2013 11:26 0,8 C -0,6 C 96 % 1020,2 hPa 0,0 l/m 0 min 2 min 0,0 UV-I 39 W/m 2,6 km/h (1 Bft)
06.12.2013 11:28 0,8 C -0,6 C 97 % 1020,2 hPa 0,0 l/m 0 min 2 min 0,0 UV-I 44 W/m 18,0 km/h (3 Bft)
06.12.2013 11:30 0,8 C -0,6 C 97 % 1020,1 hPa 0,0 l/m 0 min 2 min 0,0 UV-I 39 W/m 7,7 km/h (2 Bft)
06.12.2013 11:32 0,8 C 0,0 C 97 % 1020,1 hPa 0,0 l/m 0 min 2 min 0,0 UV-I 46 W/m 15,4 km/h (3 Bft)
06.12.2013 11:34 0,8 C 0,0 C 97 % 1020,0 hPa 0,2 l/m 0 min 2 min 0,0 UV-I 46 W/m 0,0 km/h (0 Bft)
06.12.2013 11:36 0,8 C 0,0 C 97 % 1020,0 hPa 0,0 l/m 0 min 2 min 0,0 UV-I 37 W/m 10,3 km/h (2 Bft)
06.12.2013 11:38 0,8 C 0,0 C 96 % 1020,1 hPa 0,0 l/m 0 min 0 min 0,0 UV-I 21 W/m 7,7 km/h (2 Bft)
06.12.2013 11:40 0,8 C 0,0 C 96 % 1020,2 hPa 0,0 l/m 0 min 2 min 0,0 UV-I 25 W/m 7,7 km/h (2 Bft)
06.12.2013 11:42 0,9 C 0,0 C 96 % 1020,0 hPa 0,0 l/m 0 min 2 min 0,0 UV-I 30 W/m 15,4 km/h (3 Bft)
06.12.2013 11:44 0,9 C 0,0 C 96 % 1020,1 hPa 0,0 l/m 0 min 2 min 0,0 UV-I 39 W/m 7,7 km/h (2 Bft)
06.12.2013 11:46 0,9 C 0,0 C 96 % 1020,1 hPa 0,0 l/m 0 min 2 min 0,0 UV-I 51 W/m 10,3 km/h (2 Bft)
06.12.2013 11:48 0,9 C 0,0 C 96 % 1020,2 hPa 0,2 l/m 0 min 2 min 0,0 UV-I 69 W/m 10,3 km/h (2 Bft)
06.12.2013 11:50 1,0 C 0,0 C 96 % 1020,3 hPa 0,0 l/m 0 min 2 min 0,0 UV-I 58 W/m 15,4 km/h (3 Bft)
06.12.2013 11:52 1,0 C 0,6 C 97 % 1020,2 hPa 0,0 l/m 0 min 0 min 0,0 UV-I 77 W/m 10,3 km/h (2 Bft)
06.12.2013 11:54 1,1 C 0,6 C 97 % 1020,2 hPa 0,0 l/m 0 min 2 min 0,0 UV-I 67 W/m 10,3 km/h (2 Bft)
06.12.2013 11:56 1,1 C 0,6 C 97 % 1020,3 hPa 0,0 l/m 0 min 0 min 0,0 UV-I 65 W/m 7,7 km/h (2 Bft)
06.12.2013 11:58 1,1 C 0,6 C 97 % 1020,2 hPa 0,0 l/m 0 min 2 min 0,0 UV-I 69 W/m 12,9 km/h (3 Bft)
06.12.2013 12:00 1,2 C 0,6 C 97 % 1020,2 hPa 0,0 l/m 0 min 2 min 0,0 UV-I 65 W/m 7,7 km/h (2 Bft)
06.12.2013 12:02 1,2 C 0,6 C 97 % 1020,2 hPa 0,0 l/m 0 min 0 min 0,0 UV-I 67 W/m 20,6 km/h (4 Bft)
06.12.2013 12:04 1,3 C 0,6 C 97 % 1020,2 hPa 0,0 l/m 0 min 2 min 0,0 UV-I 67 W/m 20,6 km/h (4 Bft)
06.12.2013 12:06 1,3 C 0,6 C 97 % 1020,1 hPa 0,0 l/m 0 min 2 min 0,0 UV-I 67 W/m 10,3 km/h (2 Bft)
06.12.2013 12:08 1,3 C 0,6 C 97 % 1020,2 hPa 0,0 l/m 0 min 0 min 0,0 UV-I 60 W/m 15,4 km/h (3 Bft)
06.12.2013 12:10 1,4 C 0,6 C 97 % 1020,1 hPa 0,2 l/m 0 min 2 min 0,0 UV-I 72 W/m 20,6 km/h (4 Bft)
06.12.2013 12:12 1,4 C 0,6 C 97 % 1020,1 hPa 0,0 l/m 0 min 2 min 0,0 UV-I 83 W/m 18,0 km/h (3 Bft)
06.12.2013 12:14 1,4 C 0,6 C 97 % 1020,1 hPa 0,0 l/m 0 min 2 min 0,0 UV-I 74 W/m 20,6 km/h (4 Bft)
06.12.2013 12:16 1,5 C 0,6 C 97 % 1019,9 hPa 0,0 l/m 0 min 2 min 0,0 UV-I 69 W/m 20,6 km/h (4 Bft)
06.12.2013 12:18 1,5 C 0,6 C 97 % 1020,0 hPa 0,0 l/m 0 min 2 min 0,0 UV-I 77 W/m 18,0 km/h (3 Bft)
06.12.2013 12:20 1,6 C 0,6 C 97 % 1020,1 hPa 0,0 l/m 0 min 2 min 0,0 UV-I 72 W/m 12,9 km/h (3 Bft)
06.12.2013 12:22 1,6 C 0,6 C 97 % 1020,3 hPa 0,0 l/m 0 min 2 min 0,0 UV-I 47 W/m 18,0 km/h (3 Bft)
06.12.2013 12:24 1,6 C 0,6 C 97 % 1020,1 hPa 0,0 l/m 0 min 2 min 0,0 UV-I 49 W/m 12,9 km/h (3 Bft)
06.12.2013 12:26 1,6 C 0,6 C 97 % 1020,1 hPa 0,2 l/m 0 min 2 min 0,0 UV-I 60 W/m 12,9 km/h (3 Bft)
06.12.2013 12:28 1,7 C 0,6 C 97 % 1019,9 hPa 0,0 l/m 0 min 2 min 0,0 UV-I 67 W/m 15,4 km/h (3 Bft)
06.12.2013 12:30 1,7 C 0,6 C 97 % 1020,1 hPa 0,0 l/m 0 min 0 min 0,0 UV-I 70 W/m 15,4 km/h (3 Bft)
06.12.2013 12:32 1,7 C 0,6 C 97 % 1020,1 hPa 0,0 l/m 0 min 2 min 0,0 UV-I 62 W/m 23,2 km/h (4 Bft)
06.12.2013 12:34 1,7 C 0,6 C 97 % 1020,2 hPa 0,0 l/m 0 min 2 min 0,0 UV-I 53 W/m 18,0 km/h (3 Bft)
06.12.2013 12:36 1,7 C 0,6 C 97 % 1020,2 hPa 0,0 l/m 0 min 2 min 0,0 UV-I 62 W/m 20,6 km/h (4 Bft)
06.12.2013 12:38 1,7 C 0,6 C 97 % 1020,1 hPa 0,0 l/m 0 min 2 min 0,0 UV-I 91 W/m 15,4 km/h (3 Bft)
06.12.2013 12:40 1,7 C 1,1 C 97 % 1020,1 hPa 0,0 l/m 0 min 2 min 0,0 UV-I 84 W/m 23,2 km/h (4 Bft)
06.12.2013 12:42 1,7 C 0,6 C 97 % 1020,2 hPa 0,0 l/m 0 min 2 min 0,0 UV-I 62 W/m 20,6 km/h (4 Bft)
06.12.2013 12:44 1,7 C 1,1 C 97 % 1020,2 hPa 0,0 l/m 0 min 2 min 0,0 UV-I 60 W/m 2,6 km/h (1 Bft)
06.12.2013 12:46 1,8 C 0,6 C 97 % 1020,2 hPa 0,0 l/m 0 min 2 min 0,0 UV-I 56 W/m 15,4 km/h (3 Bft)
06.12.2013 12:48 1,8 C 0,6 C 97 % 1020,2 hPa 0,0 l/m 0 min 2 min 0,0 UV-I 44 W/m 33,5 km/h (5 Bft)
06.12.2013 12:50 1,8 C 0,6 C 97 % 1020,3 hPa 0,0 l/m 0 min 2 min 0,0 UV-I 30 W/m 12,9 km/h (3 Bft)
06.12.2013 12:52 1,8 C 0,6 C 97 % 1020,4 hPa 0,0 l/m 0 min 2 min 0,0 UV-I 32 W/m 12,9 km/h (3 Bft)
06.12.2013 12:54 1,8 C 0,6 C 97 % 1020,4 hPa 0,2 l/m 0 min 2 min 0,0 UV-I 37 W/m 28,3 km/h (4 Bft)
06.12.2013 12:56 1,8 C 0,6 C 97 % 1020,4 hPa 0,0 l/m 0 min 2 min 0,0 UV-I 32 W/m 28,3 km/h (4 Bft)
06.12.2013 12:58 1,8 C 0,6 C 97 % 1020,5 hPa 0,0 l/m 0 min 2 min 0,0 UV-I 28 W/m 12,9 km/h (3 Bft)
06.12.2013 13:00 1,8 C 0,6 C 97 % 1020,5 hPa 0,0 l/m 0 min 2 min 0,0 UV-I 25 W/m 10,3 km/h (2 Bft)
06.12.2013 13:02 1,8 C 0,6 C 97 % 1020,6 hPa 0,0 l/m 0 min 2 min 0,0 UV-I 23 W/m 15,4 km/h (3 Bft)
06.12.2013 13:04 1,8 C 0,6 C 97 % 1020,6 hPa 0,0 l/m 0 min 2 min 0,0 UV-I 28 W/m 15,4 km/h (3 Bft)
06.12.2013 13:06 1,8 C 0,6 C 97 % 1020,6 hPa 0,0 l/m 0 min 2 min 0,0 UV-I 25 W/m 12,9 km/h (3 Bft)
06.12.2013 13:08 1,8 C 0,6 C 97 % 1020,7 hPa 0,0 l/m 0 min 2 min 0,0 UV-I 21 W/m 25,7 km/h (4 Bft)
06.12.2013 13:10 1,8 C 0,0 C 97 % 1020,9 hPa 0,0 l/m 0 min 2 min 0,0 UV-I 25 W/m 23,2 km/h (4 Bft)
06.12.2013 13:12 1,7 C 0,0 C 97 % 1020,9 hPa 0,2 l/m 0 min 2 min 0,0 UV-I 25 W/m 18,0 km/h (3 Bft)
06.12.2013 13:14 1,7 C 0,0 C 97 % 1020,7 hPa 0,0 l/m 0 min 2 min 0,0 UV-I 28 W/m 25,7 km/h (4 Bft)
06.12.2013 13:16 1,7 C 0,6 C 97 % 1020,7 hPa 0,0 l/m 0 min 2 min 0,0 UV-I 25 W/m 23,2 km/h (4 Bft)
06.12.2013 13:18 1,7 C 0,6 C 96 % 1020,6 hPa 0,2 l/m 0 min 2 min 0,0 UV-I 39 W/m 23,2 km/h (4 Bft)
06.12.2013 13:20 1,7 C 0,6 C 96 % 1020,6 hPa 0,0 l/m 0 min 2 min 0,0 UV-I 28 W/m 12,9 km/h (3 Bft)
06.12.2013 13:22 1,7 C 0,0 C 96 % 1020,6 hPa 0,0 l/m 0 min 2 min 0,0 UV-I 30 W/m 12,9 km/h (3 Bft)
06.12.2013 13:24 1,7 C 0,0 C 96 % 1020,7 hPa 0,0 l/m 0 min 2 min 0,0 UV-I 28 W/m 7,7 km/h (2 Bft)
06.12.2013 13:26 1,6 C 0,0 C 96 % 1020,8 hPa 0,2 l/m 0 min 2 min 0,0 UV-I 37 W/m 18,0 km/h (3 Bft)
06.12.2013 13:28 1,6 C 0,0 C 96 % 1020,6 hPa 0,0 l/m 0 min 2 min 0,0 UV-I 44 W/m 12,9 km/h (3 Bft)
06.12.2013 13:30 1,6 C 0,0 C 96 % 1020,8 hPa 0,0 l/m 0 min 2 min 0,0 UV-I 40 W/m 12,9 km/h (3 Bft)
06.12.2013 13:32 1,6 C 0,6 C 96 % 1020,6 hPa 0,0 l/m 0 min 2 min 0,0 UV-I 44 W/m 12,9 km/h (3 Bft)
06.12.2013 13:34 1,6 C 0,6 C 96 % 1020,5 hPa 0,0 l/m 0 min 2 min 0,0 UV-I 49 W/m 10,3 km/h (2 Bft)
06.12.2013 13:36 1,6 C 0,6 C 96 % 1020,6 hPa 0,0 l/m 0 min 2 min 0,0 UV-I 54 W/m 15,4 km/h (3 Bft)
06.12.2013 13:38 1,6 C 0,6 C 96 % 1020,6 hPa 0,0 l/m 0 min 2 min 0,0 UV-I 67 W/m 12,9 km/h (3 Bft)
06.12.2013 13:40 1,6 C 0,6 C 96 % 1020,6 hPa 0,0 l/m 0 min 0 min 0,0 UV-I 56 W/m 7,7 km/h (2 Bft)
06.12.2013 13:42 1,7 C 0,6 C 97 % 1020,7 hPa 0,0 l/m 0 min 0 min 0,0 UV-I 42 W/m 7,7 km/h (2 Bft)
06.12.2013 13:44 1,7 C 0,6 C 97 % 1020,7 hPa 0,0 l/m 0 min 2 min 0,0 UV-I 47 W/m 12,9 km/h (3 Bft)
06.12.2013 13:46 1,7 C 0,6 C 96 % 1020,6 hPa 0,0 l/m 0 min 0 min 0,0 UV-I 47 W/m 15,4 km/h (3 Bft)
06.12.2013 13:48 1,7 C 0,6 C 96 % 1020,6 hPa 0,2 l/m 0 min 0 min 0,0 UV-I 65 W/m 7,7 km/h (2 Bft)
06.12.2013 13:50 1,7 C 1,1 C 96 % 1020,7 hPa 0,0 l/m 0 min 0 min 0,0 UV-I 70 W/m 10,3 km/h (2 Bft)
06.12.2013 13:52 1,8 C 1,1 C 97 % 1020,7 hPa 0,0 l/m 0 min 0 min 0,0 UV-I 72 W/m 12,9 km/h (3 Bft)
06.12.2013 13:54 1,8 C 1,1 C 97 % 1020,6 hPa 0,0 l/m 0 min 0 min 0,0 UV-I 67 W/m 15,4 km/h (3 Bft)
06.12.2013 13:56 1,8 C 1,1 C 97 % 1020,7 hPa 0,0 l/m 0 min 0 min 0,0 UV-I 58 W/m 18,0 km/h (3 Bft)
06.12.2013 13:58 1,8 C 1,1 C 97 % 1020,8 hPa 0,0 l/m 0 min 0 min 0,0 UV-I 60 W/m 10,3 km/h (2 Bft)
06.12.2013 14:00 1,9 C 1,1 C 97 % 1020,9 hPa 0,0 l/m 0 min 0 min 0,0 UV-I 65 W/m 10,3 km/h (2 Bft)
06.12.2013 14:02 1,9 C 1,1 C 97 % 1020,9 hPa 0,0 l/m 0 min 0 min 0,0 UV-I 69 W/m 10,3 km/h (2 Bft)
06.12.2013 14:04 1,9 C 1,1 C 97 % 1020,9 hPa 0,0 l/m 0 min 0 min 0,0 UV-I 74 W/m 12,9 km/h (3 Bft)
06.12.2013 14:06 1,9 C 1,1 C 97 % 1020,9 hPa 0,0 l/m 0 min 0 min 0,0 UV-I 74 W/m 12,9 km/h (3 Bft)
06.12.2013 14:08 2,0 C 1,1 C 97 % 1021,0 hPa 0,0 l/m 0 min 0 min 0,0 UV-I 56 W/m 28,3 km/h (4 Bft)
06.12.2013 14:10 2,0 C 1,1 C 97 % 1020,8 hPa 0,2 l/m 0 min 0 min 0,0 UV-I 46 W/m 15,4 km/h (3 Bft)
06.12.2013 14:12 2,1 C 1,1 C 97 % 1020,7 hPa 0,0 l/m 0 min 2 min 0,0 UV-I 44 W/m 12,9 km/h (3 Bft)
06.12.2013 14:14 2,1 C 1,1 C 97 % 1020,8 hPa 0,0 l/m 0 min 2 min 0,0 UV-I 42 W/m 25,7 km/h (4 Bft)
06.12.2013 14:16 2,1 C 1,1 C 97 % 1020,8 hPa 0,0 l/m 0 min 2 min 0,0 UV-I 39 W/m 15,4 km/h (3 Bft)
06.12.2013 14:18 2,1 C 1,1 C 97 % 1020,9 hPa 0,0 l/m 0 min 0 min 0,0 UV-I 40 W/m 15,4 km/h (3 Bft)
06.12.2013 14:20 2,1 C 1,1 C 97 % 1020,9 hPa 0,0 l/m 0 min 0 min 0,0 UV-I 46 W/m 10,3 km/h (2 Bft)
06.12.2013 14:22 2,1 C 1,1 C 97 % 1020,9 hPa 0,0 l/m 0 min 0 min 0,0 UV-I 47 W/m 12,9 km/h (3 Bft)
06.12.2013 14:24 2,1 C 1,1 C 97 % 1020,9 hPa 0,0 l/m 0 min 0 min 0,0 UV-I 58 W/m 18,0 km/h (3 Bft)
06.12.2013 14:26 2,1 C 1,1 C 97 % 1020,8 hPa 0,0 l/m 0 min 0 min 0,0 UV-I 72 W/m 12,9 km/h (3 Bft)
06.12.2013 14:28 2,1 C 1,1 C 97 % 1020,7 hPa 0,0 l/m 0 min 0 min 0,0 UV-I 62 W/m 18,0 km/h (3 Bft)
06.12.2013 14:30 2,1 C 1,1 C 97 % 1020,7 hPa 0,0 l/m 0 min 0 min 0,0 UV-I 62 W/m 15,4 km/h (3 Bft)
06.12.2013 14:32 2,1 C 1,1 C 97 % 1020,7 hPa 0,0 l/m 0 min 0 min 0,0 UV-I 63 W/m 15,4 km/h (3 Bft)
06.12.2013 14:34 2,2 C 1,1 C 97 % 1020,7 hPa 0,0 l/m 0 min 0 min 0,0 UV-I 53 W/m 7,7 km/h (2 Bft)
06.12.2013 14:36 2,2 C 1,1 C 97 % 1020,9 hPa 0,0 l/m 0 min 0 min 0,0 UV-I 42 W/m 15,4 km/h (3 Bft)
06.12.2013 14:38 2,2 C 1,1 C 97 % 1020,9 hPa 0,0 l/m 0 min 0 min 0,0 UV-I 39 W/m 10,3 km/h (2 Bft)
06.12.2013 14:40 2,2 C 1,1 C 96 % 1020,9 hPa 0,0 l/m 0 min 0 min 0,0 UV-I 28 W/m 12,9 km/h (3 Bft)
06.12.2013 14:42 2,2 C 1,1 C 96 % 1021,0 hPa 0,0 l/m 0 min 2 min 0,0 UV-I 47 W/m 23,2 km/h (4 Bft)
06.12.2013 14:44 2,2 C 1,1 C 96 % 1021,0 hPa 0,0 l/m 0 min 0 min 0,0 UV-I 65 W/m 20,6 km/h (4 Bft)
06.12.2013 14:46 2,2 C 1,1 C 96 % 1021,1 hPa 0,0 l/m 0 min 0 min 0,0 UV-I 53 W/m 23,2 km/h (4 Bft)
06.12.2013 14:48 2,2 C 1,1 C 96 % 1021,0 hPa 0,0 l/m 0 min 0 min 0,0 UV-I 37 W/m 10,3 km/h (2 Bft)
06.12.2013 14:50 2,2 C 1,1 C 96 % 1021,0 hPa 0,0 l/m 0 min 0 min 0,0 UV-I 28 W/m 23,2 km/h (4 Bft)
06.12.2013 14:52 2,2 C 1,1 C 96 % 1021,0 hPa 0,0 l/m 0 min 0 min 0,0 UV-I 28 W/m 20,6 km/h (4 Bft)
06.12.2013 14:54 2,2 C 1,1 C 96 % 1021,0 hPa 0,0 l/m 0 min 0 min 0,0 UV-I 35 W/m 28,3 km/h (4 Bft)
06.12.2013 14:56 2,2 C 1,1 C 96 % 1021,1 hPa 0,0 l/m 0 min 0 min 0,0 UV-I 37 W/m 18,0 km/h (3 Bft)
06.12.2013 14:58 2,2 C 1,1 C 96 % 1021,1 hPa 0,0 l/m 0 min 0 min 0,0 UV-I 39 W/m 18,0 km/h (3 Bft)
06.12.2013 15:00 2,2 C 1,1 C 96 % 1021,1 hPa 0,0 l/m 0 min 0 min 0,0 UV-I 40 W/m 12,9 km/h (3 Bft)
06.12.2013 15:02 2,2 C 1,1 C 96 % 1021,1 hPa 0,2 l/m 0 min 0 min 0,0 UV-I 37 W/m 18,0 km/h (3 Bft)
06.12.2013 15:04 2,3 C 1,1 C 96 % 1021,2 hPa 0,0 l/m 0 min 0 min 0,0 UV-I 32 W/m 23,2 km/h (4 Bft)
06.12.2013 15:06 2,3 C 1,1 C 96 % 1021,2 hPa 0,0 l/m 0 min 0 min 0,0 UV-I 28 W/m 10,3 km/h (2 Bft)
06.12.2013 15:08 2,3 C 1,1 C 96 % 1021,3 hPa 0,0 l/m 0 min 0 min 0,0 UV-I 28 W/m 18,0 km/h (3 Bft)
06.12.2013 15:10 2,3 C 1,1 C 96 % 1021,2 hPa 0,0 l/m 0 min 0 min 0,0 UV-I 26 W/m 23,2 km/h (4 Bft)
06.12.2013 15:12 2,3 C 1,1 C 96 % 1021,3 hPa 0,0 l/m 0 min 0 min 0,0 UV-I 26 W/m 23,2 km/h (4 Bft)
06.12.2013 15:14 2,3 C 1,1 C 96 % 1021,2 hPa 0,0 l/m 0 min 0 min 0,0 UV-I 28 W/m 18,0 km/h (3 Bft)
06.12.2013 15:16 2,3 C 1,1 C 95 % 1021,4 hPa 0,0 l/m 0 min 0 min 0,0 UV-I 32 W/m 20,6 km/h (4 Bft)
06.12.2013 15:18 2,3 C 1,1 C 95 % 1021,1 hPa 0,0 l/m 0 min 0 min 0,0 UV-I 33 W/m 33,5 km/h (5 Bft)
06.12.2013 15:20 2,3 C 1,1 C 95 % 1021,3 hPa 0,0 l/m 0 min 0 min 0,0 UV-I 26 W/m 15,4 km/h (3 Bft)
06.12.2013 15:22 2,3 C 1,1 C 95 % 1021,4 hPa 0,0 l/m 0 min 0 min 0,0 UV-I 18 W/m 30,9 km/h (5 Bft)
06.12.2013 15:24 2,3 C 1,1 C 95 % 1021,4 hPa 0,0 l/m 0 min 0 min 0,0 UV-I 16 W/m 20,6 km/h (4 Bft)
06.12.2013 15:26 2,4 C 1,1 C 95 % 1021,4 hPa 0,0 l/m 0 min 2 min 0,0 UV-I 18 W/m 33,5 km/h (5 Bft)
06.12.2013 15:28 2,4 C 1,1 C 95 % 1021,4 hPa 0,0 l/m 0 min 2 min 0,0 UV-I 18 W/m 18,0 km/h (3 Bft)
06.12.2013 15:30 2,4 C 1,1 C 95 % 1021,4 hPa 0,0 l/m 0 min 2 min 0,0 UV-I 16 W/m 18,0 km/h (3 Bft)
06.12.2013 15:32 2,4 C 1,1 C 95 % 1021,4 hPa 0,0 l/m 0 min 2 min 0,0 UV-I 18 W/m 18,0 km/h (3 Bft)
06.12.2013 15:34 2,4 C 1,1 C 95 % 1021,4 hPa 0,0 l/m 0 min 0 min 0,0 UV-I 16 W/m 20,6 km/h (4 Bft)
06.12.2013 15:36 2,4 C 1,1 C 95 % 1021,5 hPa 0,0 l/m 0 min 2 min 0,0 UV-I 14 W/m 25,7 km/h (4 Bft)
06.12.2013 15:38 2,4 C 1,1 C 95 % 1021,5 hPa 0,2 l/m 0 min 0 min 0,0 UV-I 14 W/m 15,4 km/h (3 Bft)
06.12.2013 15:40 2,4 C 1,1 C 95 % 1021,4 hPa 0,0 l/m 0 min 0 min 0,0 UV-I 16 W/m 12,9 km/h (3 Bft)
06.12.2013 15:42 2,4 C 1,1 C 94 % 1021,5 hPa 0,0 l/m 0 min 0 min 0,0 UV-I 14 W/m 12,9 km/h (3 Bft)
06.12.2013 15:44 2,3 C 1,1 C 94 % 1021,5 hPa 0,0 l/m 0 min 0 min 0,0 UV-I 12 W/m 7,7 km/h (2 Bft)
06.12.2013 15:46 2,3 C 1,1 C 94 % 1021,6 hPa 0,0 l/m 0 min 0 min 0,0 UV-I 9 W/m 18,0 km/h (3 Bft)
06.12.2013 15:48 2,4 C 1,1 C 94 % 1021,6 hPa 0,0 l/m 0 min 0 min 0,0 UV-I 9 W/m 12,9 km/h (3 Bft)
06.12.2013 15:50 2,3 C 1,1 C 94 % 1021,6 hPa 0,0 l/m 0 min 0 min 0,0 UV-I 9 W/m 10,3 km/h (2 Bft)
06.12.2013 15:52 2,3 C 1,1 C 94 % 1021,7 hPa 0,0 l/m 0 min 0 min 0,0 UV-I 9 W/m 7,7 km/h (2 Bft)
06.12.2013 15:54 2,3 C 1,1 C 94 % 1021,7 hPa 0,0 l/m 0 min 0 min 0,0 UV-I 9 W/m 5,1 km/h (1 Bft)
06.12.2013 15:56 2,3 C 1,1 C 94 % 1021,8 hPa 0,0 l/m 0 min 0 min 0,0 UV-I 11 W/m 23,2 km/h (4 Bft)
06.12.2013 15:58 2,3 C 1,1 C 94 % 1021,7 hPa 0,0 l/m 0 min 0 min 0,0 UV-I 11 W/m 12,9 km/h (3 Bft)
06.12.2013 16:00 2,3 C 1,1 C 94 % 1021,7 hPa 0,0 l/m 0 min 0 min 0,0 UV-I 9 W/m 15,4 km/h (3 Bft)
06.12.2013 16:02 2,3 C 1,1 C 94 % 1021,8 hPa 0,0 l/m 0 min 0 min 0,0 UV-I 11 W/m 28,3 km/h (4 Bft)
06.12.2013 16:04 2,3 C 1,1 C 94 % 1021,8 hPa 0,0 l/m 0 min 0 min 0,0 UV-I 9 W/m 18,0 km/h (3 Bft)
06.12.2013 16:06 2,3 C 1,1 C 94 % 1021,9 hPa 0,0 l/m 0 min 0 min 0,0 UV-I 7 W/m 2,6 km/h (1 Bft)
06.12.2013 16:08 2,3 C 1,1 C 94 % 1021,8 hPa 0,0 l/m 0 min 0 min 0,0 UV-I 5 W/m 10,3 km/h (2 Bft)
06.12.2013 16:10 2,3 C 1,1 C 94 % 1021,9 hPa 0,0 l/m 0 min 0 min 0,0 UV-I 5 W/m 10,3 km/h (2 Bft)
06.12.2013 16:12 2,3 C 1,1 C 94 % 1021,7 hPa 0,0 l/m 0 min 0 min 0,0 UV-I 5 W/m 5,1 km/h (1 Bft)
06.12.2013 16:14 2,3 C 1,1 C 94 % 1021,8 hPa 0,0 l/m 0 min 0 min 0,0 UV-I 5 W/m 18,0 km/h (3 Bft)
06.12.2013 16:16 2,3 C 1,1 C 93 % 1021,8 hPa 0,0 l/m 0 min 0 min 0,0 UV-I 5 W/m 18,0 km/h (3 Bft)
06.12.2013 16:18 2,3 C 1,1 C 93 % 1021,8 hPa 0,0 l/m 0 min 0 min 0,0 UV-I 5 W/m 2,6 km/h (1 Bft)
06.12.2013 16:20 2,3 C 1,1 C 93 % 1021,9 hPa 0,0 l/m 0 min 0 min 0,0 UV-I 0 W/m 7,7 km/h (2 Bft)
06.12.2013 16:22 2,3 C 1,1 C 93 % 1021,9 hPa 0,0 l/m 0 min 0 min 0,0 UV-I 0 W/m 20,6 km/h (4 Bft)
06.12.2013 16:24 2,3 C 1,1 C 93 % 1021,9 hPa 0,0 l/m 0 min 0 min 0,0 UV-I 0 W/m 10,3 km/h (2 Bft)
06.12.2013 16:26 2,3 C 1,1 C 93 % 1021,9 hPa 0,0 l/m 0 min 0 min 0,0 UV-I 0 W/m 18,0 km/h (3 Bft)
06.12.2013 16:28 2,3 C 1,1 C 93 % 1022,0 hPa 0,0 l/m 0 min 0 min 0,0 UV-I 0 W/m 15,4 km/h (3 Bft)
06.12.2013 16:30 2,3 C 1,1 C 93 % 1022,1 hPa 0,0 l/m 0 min 0 min 0,0 UV-I 0 W/m 23,2 km/h (4 Bft)
06.12.2013 16:32 2,3 C 1,1 C 93 % 1022,0 hPa 0,0 l/m 0 min 0 min 0,0 UV-I 0 W/m 7,7 km/h (2 Bft)
06.12.2013 16:34 2,3 C 1,1 C 93 % 1022,0 hPa 0,0 l/m 0 min 0 min 0,0 UV-I 0 W/m 10,3 km/h (2 Bft)
06.12.2013 16:36 2,3 C 1,1 C 93 % 1022,0 hPa 0,0 l/m 0 min 0 min 0,0 UV-I 0 W/m 15,4 km/h (3 Bft)
06.12.2013 16:38 2,3 C 1,1 C 93 % 1022,1 hPa 0,0 l/m 0 min 0 min 0,0 UV-I 0 W/m 20,6 km/h (4 Bft)
06.12.2013 16:40 2,3 C 1,1 C 93 % 1022,0 hPa 0,0 l/m 0 min 0 min 0,0 UV-I 0 W/m 18,0 km/h (3 Bft)
06.12.2013 16:42 2,3 C 0,6 C 93 % 1022,1 hPa 0,0 l/m 0 min 0 min 0,0 UV-I 0 W/m 10,3 km/h (2 Bft)
06.12.2013 16:44 2,3 C 0,6 C 93 % 1022,1 hPa 0,0 l/m 0 min 0 min 0,0 UV-I 0 W/m 15,4 km/h (3 Bft)
06.12.2013 16:46 2,3 C 0,6 C 93 % 1022,1 hPa 0,0 l/m 0 min 0 min 0,0 UV-I 0 W/m 15,4 km/h (3 Bft)
06.12.2013 16:48 2,3 C 0,6 C 93 % 1022,0 hPa 0,0 l/m 0 min 0 min 0,0 UV-I 0 W/m 18,0 km/h (3 Bft)
06.12.2013 16:50 2,3 C 0,6 C 93 % 1022,1 hPa 0,0 l/m 0 min 0 min 0,0 UV-I 0 W/m 20,6 km/h (4 Bft)
06.12.2013 16:52 2,3 C 0,6 C 93 % 1022,2 hPa 0,0 l/m 0 min 0 min 0,0 UV-I 0 W/m 12,9 km/h (3 Bft)
06.12.2013 16:54 2,3 C 0,6 C 93 % 1022,2 hPa 0,0 l/m 0 min 0 min 0,0 UV-I 0 W/m 7,7 km/h (2 Bft)
06.12.2013 16:56 2,2 C 0,6 C 93 % 1022,2 hPa 0,0 l/m 0 min 0 min 0,0 UV-I 0 W/m 10,3 km/h (2 Bft)
06.12.2013 16:58 2,3 C 1,1 C 93 % 1022,2 hPa 0,0 l/m 0 min 0 min 0,0 UV-I 0 W/m 20,6 km/h (4 Bft)
06.12.2013 17:00 2,2 C 1,1 C 92 % 1022,2 hPa 0,0 l/m 0 min 0 min 0,0 UV-I 0 W/m 28,3 km/h (4 Bft)
06.12.2013 17:02 2,2 C 1,1 C 92 % 1022,2 hPa 0,0 l/m 0 min 0 min 0,0 UV-I 0 W/m 33,5 km/h (5 Bft)
06.12.2013 17:04 2,2 C 1,1 C 92 % 1022,3 hPa 0,0 l/m 0 min 0 min 0,0 UV-I 0 W/m 25,7 km/h (4 Bft)
06.12.2013 17:06 2,3 C 1,1 C 92 % 1022,4 hPa 0,0 l/m 0 min 0 min 0,0 UV-I 0 W/m 12,9 km/h (3 Bft)
06.12.2013 17:08 2,3 C 1,1 C 92 % 1022,3 hPa 0,0 l/m 0 min 0 min 0,0 UV-I 0 W/m 23,2 km/h (4 Bft)
06.12.2013 17:10 2,3 C 1,1 C 92 % 1022,4 hPa 0,0 l/m 0 min 0 min 0,0 UV-I 0 W/m 20,6 km/h (4 Bft)
06.12.2013 17:12 2,3 C 1,1 C 92 % 1022,4 hPa 0,0 l/m 0 min 0 min 0,0 UV-I 0 W/m 15,4 km/h (3 Bft)
06.12.2013 17:14 2,3 C 1,1 C 92 % 1022,4 hPa 0,0 l/m 0 min 0 min 0,0 UV-I 0 W/m 10,3 km/h (2 Bft)
06.12.2013 17:16 2,3 C 1,1 C 92 % 1022,5 hPa 0,0 l/m 0 min 2 min 0,0 UV-I 0 W/m 7,7 km/h (2 Bft)
06.12.2013 17:18 2,3 C 1,1 C 92 % 1022,5 hPa 0,2 l/m 0 min 2 min 0,0 UV-I 0 W/m 28,3 km/h (4 Bft)
06.12.2013 17:20 2,3 C 1,1 C 92 % 1022,6 hPa 0,0 l/m 0 min 2 min 0,0 UV-I 0 W/m 15,4 km/h (3 Bft)
06.12.2013 17:22 2,3 C 1,1 C 92 % 1022,6 hPa 0,0 l/m 0 min 2 min 0,0 UV-I 0 W/m 20,6 km/h (4 Bft)
06.12.2013 17:24 2,3 C 1,1 C 92 % 1022,6 hPa 0,0 l/m 0 min 0 min 0,0 UV-I 0 W/m 7,7 km/h (2 Bft)
06.12.2013 17:26 2,3 C 1,1 C 92 % 1022,6 hPa 0,0 l/m 0 min 0 min 0,0 UV-I 0 W/m 12,9 km/h (3 Bft)
06.12.2013 17:28 2,3 C 1,1 C 92 % 1022,6 hPa 0,0 l/m 0 min 0 min 0,0 UV-I 0 W/m 10,3 km/h (2 Bft)
06.12.2013 17:30 2,3 C 1,1 C 92 % 1022,6 hPa 0,0 l/m 0 min 0 min 0,0 UV-I 0 W/m 18,0 km/h (3 Bft)
06.12.2013 17:32 2,3 C 1,1 C 92 % 1022,6 hPa 0,0 l/m 0 min 0 min 0,0 UV-I 0 W/m 10,3 km/h (2 Bft)
06.12.2013 17:34 2,3 C 1,1 C 92 % 1022,5 hPa 0,0 l/m 0 min 0 min 0,0 UV-I 0 W/m 10,3 km/h (2 Bft)
06.12.2013 17:36 2,3 C 1,1 C 92 % 1022,5 hPa 0,0 l/m 0 min 0 min 0,0 UV-I 0 W/m 20,6 km/h (4 Bft)
06.12.2013 17:38 2,3 C 1,1 C 92 % 1022,5 hPa 0,0 l/m 0 min 0 min 0,0 UV-I 0 W/m 10,3 km/h (2 Bft)
06.12.2013 17:40 2,3 C 1,1 C 92 % 1022,6 hPa 0,0 l/m 0 min 0 min 0,0 UV-I 0 W/m 18,0 km/h (3 Bft)
06.12.2013 17:42 2,4 C 1,1 C 92 % 1022,5 hPa 0,0 l/m 0 min 0 min 0,0 UV-I 0 W/m 12,9 km/h (3 Bft)
06.12.2013 17:44 2,4 C 1,1 C 92 % 1022,5 hPa 0,0 l/m 0 min 0 min 0,0 UV-I 0 W/m 36,0 km/h (5 Bft)
06.12.2013 17:46 2,4 C 1,1 C 91 % 1022,6 hPa 0,0 l/m 0 min 0 min 0,0 UV-I 0 W/m 18,0 km/h (3 Bft)
06.12.2013 17:48 2,4 C 1,1 C 91 % 1022,6 hPa 0,0 l/m 0 min 0 min 0,0 UV-I 0 W/m 15,4 km/h (3 Bft)
06.12.2013 17:50 2,4 C 1,1 C 91 % 1022,6 hPa 0,0 l/m 0 min 0 min 0,0 UV-I 0 W/m 23,2 km/h (4 Bft)
06.12.2013 17:52 2,4 C 1,1 C 91 % 1022,6 hPa 0,0 l/m 0 min 0 min 0,0 UV-I 0 W/m 12,9 km/h (3 Bft)
06.12.2013 17:54 2,4 C 1,1 C 91 % 1022,6 hPa 0,0 l/m 0 min 0 min 0,0 UV-I 0 W/m 12,9 km/h (3 Bft)
06.12.2013 17:56 2,4 C 1,1 C 91 % 1022,6 hPa 0,0 l/m 0 min 0 min 0,0 UV-I 0 W/m 25,7 km/h (4 Bft)
06.12.2013 17:58 2,4 C 1,1 C 91 % 1022,6 hPa 0,0 l/m 0 min 0 min 0,0 UV-I 0 W/m 18,0 km/h (3 Bft)
06.12.2013 18:00 2,5 C 1,1 C 91 % 1022,6 hPa 0,0 l/m 0 min 0 min 0,0 UV-I 0 W/m 15,4 km/h (3 Bft)
06.12.2013 18:02 2,5 C 1,1 C 91 % 1022,7 hPa 0,0 l/m 0 min 0 min 0,0 UV-I 0 W/m 18,0 km/h (3 Bft)
06.12.2013 18:04 2,5 C 1,1 C 91 % 1022,7 hPa 0,0 l/m 0 min 0 min 0,0 UV-I 0 W/m 15,4 km/h (3 Bft)
06.12.2013 18:06 2,5 C 1,1 C 90 % 1022,8 hPa 0,0 l/m 0 min 0 min 0,0 UV-I 0 W/m 20,6 km/h (4 Bft)
06.12.2013 18:08 2,6 C 1,1 C 90 % 1022,7 hPa 0,0 l/m 0 min 0 min 0,0 UV-I 0 W/m 20,6 km/h (4 Bft)
06.12.2013 18:10 2,6 C 1,1 C 90 % 1022,8 hPa 0,0 l/m 0 min 0 min 0,0 UV-I 0 W/m 15,4 km/h (3 Bft)
06.12.2013 18:12 2,6 C 1,1 C 90 % 1022,7 hPa 0,0 l/m 0 min 2 min 0,0 UV-I 0 W/m 15,4 km/h (3 Bft)
06.12.2013 18:14 2,6 C 1,1 C 90 % 1022,9 hPa 0,0 l/m 0 min 2 min 0,0 UV-I 0 W/m 23,2 km/h (4 Bft)
06.12.2013 18:16 2,6 C 1,1 C 90 % 1022,7 hPa 0,0 l/m 0 min 2 min 0,0 UV-I 0 W/m 18,0 km/h (3 Bft)
06.12.2013 18:18 2,6 C 1,1 C 90 % 1022,7 hPa 0,0 l/m 0 min 2 min 0,0 UV-I 0 W/m 7,7 km/h (2 Bft)
06.12.2013 18:20 2,6 C 1,1 C 90 % 1022,6 hPa 0,0 l/m 0 min 2 min 0,0 UV-I 0 W/m 10,3 km/h (2 Bft)
06.12.2013 18:22 2,6 C 1,1 C 90 % 1022,7 hPa 0,0 l/m 0 min 2 min 0,0 UV-I 0 W/m 12,9 km/h (3 Bft)
06.12.2013 18:24 2,6 C 1,1 C 90 % 1022,7 hPa 0,0 l/m 0 min 0 min 0,0 UV-I 0 W/m 15,4 km/h (3 Bft)
06.12.2013 18:26 2,6 C 1,1 C 90 % 1022,7 hPa 0,0 l/m 0 min 0 min 0,0 UV-I 0 W/m 10,3 km/h (2 Bft)
06.12.2013 18:28 2,6 C 1,1 C 90 % 1022,8 hPa 0,0 l/m 0 min 0 min 0,0 UV-I 0 W/m 20,6 km/h (4 Bft)
06.12.2013 18:30 2,6 C 1,1 C 90 % 1022,8 hPa 0,0 l/m 0 min 0 min 0,0 UV-I 0 W/m 10,3 km/h (2 Bft)
06.12.2013 18:32 2,6 C 1,1 C 91 % 1022,7 hPa 0,0 l/m 0 min 2 min 0,0 UV-I 0 W/m 20,6 km/h (4 Bft)
06.12.2013 18:34 2,6 C 1,1 C 91 % 1022,7 hPa 0,0 l/m 0 min 0 min 0,0 UV-I 0 W/m 20,6 km/h (4 Bft)
06.12.2013 18:36 2,6 C 1,1 C 91 % 1022,9 hPa 0,0 l/m 0 min 0 min 0,0 UV-I 0 W/m 10,3 km/h (2 Bft)
06.12.2013 18:38 2,5 C 1,1 C 91 % 1022,8 hPa 0,2 l/m 0 min 0 min 0,0 UV-I 0 W/m 23,2 km/h (4 Bft)
06.12.2013 18:40 2,5 C 1,1 C 91 % 1023,0 hPa 0,0 l/m 0 min 0 min 0,0 UV-I 0 W/m 12,9 km/h (3 Bft)
06.12.2013 18:42 2,5 C 1,1 C 91 % 1022,9 hPa 0,0 l/m 0 min 0 min 0,0 UV-I 0 W/m 10,3 km/h (2 Bft)
06.12.2013 18:44 2,5 C 1,1 C 91 % 1023,0 hPa 0,0 l/m 0 min 0 min 0,0 UV-I 0 W/m 20,6 km/h (4 Bft)
06.12.2013 18:46 2,5 C 1,1 C 91 % 1023,0 hPa 0,0 l/m 0 min 0 min 0,0 UV-I 0 W/m 18,0 km/h (3 Bft)
06.12.2013 18:48 2,4 C 1,1 C 91 % 1023,0 hPa 0,0 l/m 0 min 0 min 0,0 UV-I 0 W/m 15,4 km/h (3 Bft)
06.12.2013 18:50 2,4 C 1,1 C 91 % 1023,0 hPa 0,0 l/m 0 min 0 min 0,0 UV-I 0 W/m 23,2 km/h (4 Bft)
06.12.2013 18:52 2,4 C 1,1 C 91 % 1023,0 hPa 0,0 l/m 0 min 0 min 0,0 UV-I 0 W/m 10,3 km/h (2 Bft)
06.12.2013 18:54 2,4 C 1,1 C 91 % 1023,0 hPa 0,0 l/m 0 min 0 min 0,0 UV-I 0 W/m 15,4 km/h (3 Bft)
06.12.2013 18:56 2,4 C 1,1 C 91 % 1023,1 hPa 0,0 l/m 0 min 0 min 0,0 UV-I 0 W/m 18,0 km/h (3 Bft)
06.12.2013 18:58 2,4 C 1,1 C 91 % 1023,1 hPa 0,0 l/m 0 min 0 min 0,0 UV-I 0 W/m 23,2 km/h (4 Bft)
06.12.2013 19:00 2,4 C 1,1 C 91 % 1023,1 hPa 0,0 l/m 0 min 0 min 0,0 UV-I 0 W/m 10,3 km/h (2 Bft)
06.12.2013 19:02 2,4 C 1,1 C 92 % 1023,1 hPa 0,0 l/m 0 min 0 min 0,0 UV-I 0 W/m 15,4 km/h (3 Bft)
06.12.2013 19:04 2,4 C 1,1 C 92 % 1023,0 hPa 0,0 l/m 0 min 0 min 0,0 UV-I 0 W/m 23,2 km/h (4 Bft)
06.12.2013 19:05 2,4 C 1,1 C 92 % 1023,0 hPa 0,0 l/m 0 min 0 min 0,0 UV-I 0 W/m 23,2 km/h (4 Bft)
06.12.2013 19:10 2,3 C 1,1 C 92 % 1023,0 hPa 0,0 l/m 0 min 0 min 0,0 UV-I 0 W/m 15,4 km/h (3 Bft)
06.12.2013 19:12 2,3 C 1,1 C 92 % 1023,0 hPa 0,0 l/m 0 min 0 min 0,0 UV-I 0 W/m 12,9 km/h (3 Bft)
06.12.2013 19:14 2,3 C 1,1 C 92 % 1023,0 hPa 0,0 l/m 0 min 0 min 0,0 UV-I 0 W/m 15,4 km/h (3 Bft)
06.12.2013 19:15 2,3 C 1,1 C 92 % 1023,1 hPa 0,0 l/m 0 min 0 min 0,0 UV-I 0 W/m 15,4 km/h (3 Bft)
06.12.2013 19:20 2,3 C 1,1 C 92 % 1023,1 hPa 0,0 l/m 0 min 0 min 0,0 UV-I 0 W/m 12,9 km/h (3 Bft)
06.12.2013 19:22 2,3 C 1,1 C 92 % 1023,0 hPa 0,0 l/m 0 min 0 min 0,0 UV-I 0 W/m 12,9 km/h (3 Bft)
06.12.2013 19:24 2,3 C 1,1 C 92 % 1023,1 hPa 0,0 l/m 0 min 0 min 0,0 UV-I 0 W/m 18,0 km/h (3 Bft)
06.12.2013 19:26 2,3 C 1,1 C 92 % 1023,1 hPa 0,0 l/m 0 min 0 min 0,0 UV-I 0 W/m 15,4 km/h (3 Bft)
06.12.2013 19:28 2,3 C 1,1 C 92 % 1023,1 hPa 0,0 l/m 0 min 0 min 0,0 UV-I 0 W/m 23,2 km/h (4 Bft)
06.12.2013 19:30 2,3 C 1,1 C 92 % 1023,2 hPa 0,0 l/m 0 min 0 min 0,0 UV-I 0 W/m 15,4 km/h (3 Bft)
06.12.2013 19:32 2,3 C 1,1 C 92 % 1023,1 hPa 0,0 l/m 0 min 0 min 0,0 UV-I 0 W/m 12,9 km/h (3 Bft)
06.12.2013 19:34 2,3 C 1,1 C 92 % 1023,1 hPa 0,0 l/m 0 min 0 min 0,0 UV-I 0 W/m 12,9 km/h (3 Bft)
06.12.2013 19:36 2,3 C 1,1 C 92 % 1023,1 hPa 0,0 l/m 0 min 0 min 0,0 UV-I 0 W/m 15,4 km/h (3 Bft)
06.12.2013 19:38 2,3 C 1,1 C 92 % 1023,0 hPa 0,0 l/m 0 min 0 min 0,0 UV-I 0 W/m 12,9 km/h (3 Bft)
06.12.2013 19:42 2,3 C 1,1 C 92 % 1023,0 hPa 0,0 l/m 0 min 0 min 0,0 UV-I 0 W/m 23,2 km/h (4 Bft)
06.12.2013 19:44 2,3 C 1,1 C 92 % 1023,0 hPa 0,0 l/m 0 min 0 min 0,0 UV-I 0 W/m 15,4 km/h (3 Bft)
06.12.2013 19:46 2,2 C 1,1 C 92 % 1023,2 hPa 0,0 l/m 0 min 0 min 0,0 UV-I 0 W/m 18,0 km/h (3 Bft)
06.12.2013 19:48 2,2 C 0,6 C 92 % 1023,0 hPa 0,0 l/m 0 min 0 min 0,0 UV-I 0 W/m 23,2 km/h (4 Bft)
06.12.2013 19:50 2,2 C 0,6 C 92 % 1023,1 hPa 0,0 l/m 0 min 0 min 0,0 UV-I 0 W/m 15,4 km/h (3 Bft)
06.12.2013 19:52 2,2 C 0,6 C 92 % 1023,2 hPa 0,0 l/m 0 min 0 min 0,0 UV-I 0 W/m 15,4 km/h (3 Bft)
06.12.2013 19:54 2,2 C 0,6 C 92 % 1023,2 hPa 0,0 l/m 0 min 0 min 0,0 UV-I 0 W/m 15,4 km/h (3 Bft)
06.12.2013 19:56 2,2 C 0,6 C 92 % 1023,1 hPa 0,0 l/m 0 min 0 min 0,0 UV-I 0 W/m 18,0 km/h (3 Bft)
06.12.2013 19:58 2,1 C 0,6 C 92 % 1023,2 hPa 0,0 l/m 0 min 0 min 0,0 UV-I 0 W/m 7,7 km/h (2 Bft)
06.12.2013 20:00 2,1 C 0,6 C 92 % 1023,3 hPa 0,0 l/m 0 min 0 min 0,0 UV-I 0 W/m 7,7 km/h (2 Bft)
06.12.2013 20:02 2,1 C 0,6 C 92 % 1023,2 hPa 0,0 l/m 0 min 0 min 0,0 UV-I 0 W/m 15,4 km/h (3 Bft)
06.12.2013 20:04 2,1 C 0,6 C 92 % 1023,2 hPa 0,0 l/m 0 min 0 min 0,0 UV-I 0 W/m 10,3 km/h (2 Bft)
06.12.2013 20:06 2,1 C 0,6 C 92 % 1023,2 hPa 0,0 l/m 0 min 0 min 0,0 UV-I 0 W/m 20,6 km/h (4 Bft)
06.12.2013 20:08 2,1 C 0,6 C 92 % 1023,2 hPa 0,0 l/m 0 min 0 min 0,0 UV-I 0 W/m 23,2 km/h (4 Bft)
06.12.2013 20:10 2,1 C 0,6 C 92 % 1023,1 hPa 0,0 l/m 0 min 0 min 0,0 UV-I 0 W/m 15,4 km/h (3 Bft)
06.12.2013 20:12 2,0 C 0,6 C 92 % 1023,1 hPa 0,0 l/m 0 min 0 min 0,0 UV-I 0 W/m 12,9 km/h (3 Bft)
06.12.2013 20:14 2,0 C 0,6 C 92 % 1023,2 hPa 0,0 l/m 0 min 0 min 0,0 UV-I 0 W/m 5,1 km/h (1 Bft)
06.12.2013 20:16 2,0 C 0,6 C 92 % 1023,2 hPa 0,0 l/m 0 min 0 min 0,0 UV-I 0 W/m 18,0 km/h (3 Bft)
06.12.2013 20:18 2,0 C 0,6 C 92 % 1023,2 hPa 0,0 l/m 0 min 0 min 0,0 UV-I 0 W/m 15,4 km/h (3 Bft)
06.12.2013 20:20 2,0 C 0,6 C 92 % 1023,3 hPa 0,0 l/m 0 min 0 min 0,0 UV-I 0 W/m 7,7 km/h (2 Bft)
06.12.2013 20:22 1,9 C 0,6 C 92 % 1023,3 hPa 0,0 l/m 0 min 0 min 0,0 UV-I 0 W/m 15,4 km/h (3 Bft)
06.12.2013 20:24 1,9 C 0,6 C 92 % 1023,3 hPa 0,0 l/m 0 min 0 min 0,0 UV-I 0 W/m 12,9 km/h (3 Bft)
06.12.2013 20:26 1,9 C 0,6 C 92 % 1023,4 hPa 0,0 l/m 0 min 0 min 0,0 UV-I 0 W/m 18,0 km/h (3 Bft)
06.12.2013 20:28 1,9 C 0,6 C 92 % 1023,5 hPa 0,0 l/m 0 min 0 min 0,0 UV-I 0 W/m 15,4 km/h (3 Bft)
06.12.2013 20:30 1,9 C 0,6 C 92 % 1023,6 hPa 0,0 l/m 0 min 0 min 0,0 UV-I 0 W/m 15,4 km/h (3 Bft)
06.12.2013 20:32 1,9 C 0,6 C 92 % 1023,6 hPa 0,0 l/m 0 min 0 min 0,0 UV-I 0 W/m 15,4 km/h (3 Bft)
06.12.2013 20:34 1,9 C 0,6 C 92 % 1023,6 hPa 0,0 l/m 0 min 0 min 0,0 UV-I 0 W/m 12,9 km/h (3 Bft)
06.12.2013 20:36 1,9 C 0,6 C 92 % 1023,6 hPa 0,0 l/m 0 min 0 min 0,0 UV-I 0 W/m 12,9 km/h (3 Bft)
06.12.2013 20:38 1,9 C 0,6 C 92 % 1023,6 hPa 0,0 l/m 0 min 0 min 0,0 UV-I 0 W/m 15,4 km/h (3 Bft)
06.12.2013 20:40 2,0 C 0,6 C 92 % 1023,6 hPa 0,0 l/m 0 min 0 min 0,0 UV-I 0 W/m 23,2 km/h (4 Bft)
06.12.2013 20:42 2,0 C 0,6 C 92 % 1023,6 hPa 0,0 l/m 0 min 0 min 0,0 UV-I 0 W/m 18,0 km/h (3 Bft)
06.12.2013 20:44 2,1 C 0,6 C 92 % 1023,6 hPa 0,0 l/m 0 min 0 min 0,0 UV-I 0 W/m 7,7 km/h (2 Bft)
06.12.2013 20:46 2,1 C 0,6 C 92 % 1023,6 hPa 0,0 l/m 0 min 0 min 0,0 UV-I 0 W/m 18,0 km/h (3 Bft)
06.12.2013 20:48 2,1 C 1,1 C 92 % 1023,5 hPa 0,0 l/m 0 min 0 min 0,0 UV-I 0 W/m 18,0 km/h (3 Bft)
06.12.2013 20:50 2,1 C 0,6 C 92 % 1023,6 hPa 0,0 l/m 0 min 0 min 0,0 UV-I 0 W/m 10,3 km/h (2 Bft)
06.12.2013 20:52 2,1 C 0,6 C 92 % 1023,6 hPa 0,0 l/m 0 min 0 min 0,0 UV-I 0 W/m 10,3 km/h (2 Bft)
06.12.2013 20:54 2,1 C 0,6 C 92 % 1023,6 hPa 0,0 l/m 0 min 0 min 0,0 UV-I 0 W/m 7,7 km/h (2 Bft)
06.12.2013 20:56 2,1 C 0,6 C 92 % 1023,7 hPa 0,0 l/m 0 min 0 min 0,0 UV-I 0 W/m 7,7 km/h (2 Bft)
06.12.2013 20:58 2,1 C 0,6 C 92 % 1023,8 hPa 0,0 l/m 0 min 0 min 0,0 UV-I 0 W/m 10,3 km/h (2 Bft)
06.12.2013 21:00 2,1 C 0,6 C 92 % 1023,7 hPa 0,0 l/m 0 min 0 min 0,0 UV-I 0 W/m 15,4 km/h (3 Bft)
06.12.2013 21:02 2,1 C 1,1 C 92 % 1023,7 hPa 0,0 l/m 0 min 0 min 0,0 UV-I 0 W/m 10,3 km/h (2 Bft)
06.12.2013 21:04 2,1 C 1,1 C 92 % 1023,8 hPa 0,0 l/m 0 min 0 min 0,0 UV-I 0 W/m 0,0 km/h (0 Bft)
06.12.2013 21:06 2,1 C 1,1 C 92 % 1023,8 hPa 0,0 l/m 0 min 0 min 0,0 UV-I 0 W/m 12,9 km/h (3 Bft)
06.12.2013 21:08 2,1 C 0,6 C 92 % 1023,7 hPa 0,0 l/m 0 min 0 min 0,0 UV-I 0 W/m 12,9 km/h (3 Bft)
06.12.2013 21:10 2,1 C 0,6 C 92 % 1023,7 hPa 0,0 l/m 0 min 0 min 0,0 UV-I 0 W/m 10,3 km/h (2 Bft)
06.12.2013 21:12 2,1 C 1,1 C 91 % 1023,7 hPa 0,0 l/m 0 min 0 min 0,0 UV-I 0 W/m 7,7 km/h (2 Bft)
06.12.2013 21:14 2,1 C 1,1 C 91 % 1023,7 hPa 0,0 l/m 0 min 0 min 0,0 UV-I 0 W/m 12,9 km/h (3 Bft)
06.12.2013 21:16 2,1 C 0,6 C 91 % 1023,7 hPa 0,0 l/m 0 min 0 min 0,0 UV-I 0 W/m 7,7 km/h (2 Bft)
06.12.2013 21:18 2,1 C 0,6 C 91 % 1023,8 hPa 0,0 l/m 0 min 0 min 0,0 UV-I 0 W/m 18,0 km/h (3 Bft)
06.12.2013 21:20 2,1 C 0,6 C 91 % 1023,8 hPa 0,0 l/m 0 min 0 min 0,0 UV-I 0 W/m 7,7 km/h (2 Bft)
06.12.2013 21:22 2,1 C 0,6 C 92 % 1023,8 hPa 0,0 l/m 0 min 0 min 0,0 UV-I 0 W/m 7,7 km/h (2 Bft)
06.12.2013 21:24 2,1 C 0,6 C 91 % 1023,8 hPa 0,0 l/m 0 min 0 min 0,0 UV-I 0 W/m 7,7 km/h (2 Bft)
06.12.2013 21:26 2,1 C 0,6 C 91 % 1023,8 hPa 0,0 l/m 0 min 0 min 0,0 UV-I 0 W/m 5,1 km/h (1 Bft)
06.12.2013 21:28 2,1 C 0,6 C 91 % 1023,8 hPa 0,0 l/m 0 min 0 min 0,0 UV-I 0 W/m 12,9 km/h (3 Bft)
06.12.2013 21:30 2,1 C 0,6 C 91 % 1023,8 hPa 0,0 l/m 0 min 0 min 0,0 UV-I 0 W/m 5,1 km/h (1 Bft)
06.12.2013 21:32 2,0 C 0,6 C 91 % 1023,9 hPa 0,0 l/m 0 min 0 min 0,0 UV-I 0 W/m 2,6 km/h (1 Bft)
06.12.2013 21:34 2,0 C 0,6 C 91 % 1023,9 hPa 0,0 l/m 0 min 0 min 0,0 UV-I 0 W/m 10,3 km/h (2 Bft)
06.12.2013 21:36 2,0 C 0,6 C 91 % 1023,9 hPa 0,0 l/m 0 min 0 min 0,0 UV-I 0 W/m 7,7 km/h (2 Bft)
06.12.2013 21:38 1,9 C 0,6 C 91 % 1024,0 hPa 0,0 l/m 0 min 0 min 0,0 UV-I 0 W/m 7,7 km/h (2 Bft)
06.12.2013 21:40 1,9 C 0,6 C 91 % 1024,0 hPa 0,0 l/m 0 min 0 min 0,0 UV-I 0 W/m 10,3 km/h (2 Bft)
06.12.2013 21:42 1,9 C 0,6 C 91 % 1024,0 hPa 0,0 l/m 0 min 0 min 0,0 UV-I 0 W/m 7,7 km/h (2 Bft)
06.12.2013 21:44 1,9 C 0,6 C 91 % 1024,0 hPa 0,0 l/m 0 min 0 min 0,0 UV-I 0 W/m 5,1 km/h (1 Bft)
06.12.2013 21:46 1,9 C 0,6 C 91 % 1024,0 hPa 0,0 l/m 0 min 0 min 0,0 UV-I 0 W/m 7,7 km/h (2 Bft)
06.12.2013 21:48 1,9 C 0,6 C 91 % 1024,1 hPa 0,0 l/m 0 min 0 min 0,0 UV-I 0 W/m 15,4 km/h (3 Bft)
06.12.2013 21:50 1,8 C 0,6 C 91 % 1024,1 hPa 0,0 l/m 0 min 0 min 0,0 UV-I 0 W/m 20,6 km/h (4 Bft)
06.12.2013 21:52 1,8 C 0,6 C 91 % 1024,1 hPa 0,0 l/m 0 min 0 min 0,0 UV-I 0 W/m 15,4 km/h (3 Bft)
06.12.2013 21:54 1,8 C 0,6 C 91 % 1024,1 hPa 0,0 l/m 0 min 0 min 0,0 UV-I 0 W/m 2,6 km/h (1 Bft)
06.12.2013 21:56 1,8 C 0,6 C 91 % 1024,1 hPa 0,0 l/m 0 min 0 min 0,0 UV-I 0 W/m 12,9 km/h (3 Bft)
06.12.2013 21:58 1,8 C 0,6 C 91 % 1024,2 hPa 0,0 l/m 0 min 0 min 0,0 UV-I 0 W/m 0,0 km/h (0 Bft)
06.12.2013 22:00 1,8 C 0,6 C 91 % 1024,2 hPa 0,0 l/m 0 min 0 min 0,0 UV-I 0 W/m 12,9 km/h (3 Bft)
06.12.2013 22:02 1,8 C 0,6 C 91 % 1024,2 hPa 0,0 l/m 0 min 0 min 0,0 UV-I 0 W/m 5,1 km/h (1 Bft)
06.12.2013 22:04 1,8 C 0,6 C 91 % 1024,3 hPa 0,0 l/m 0 min 0 min 0,0 UV-I 0 W/m 7,7 km/h (2 Bft)
06.12.2013 22:06 1,8 C 0,6 C 91 % 1024,4 hPa 0,0 l/m 0 min 0 min 0,0 UV-I 0 W/m 5,1 km/h (1 Bft)
06.12.2013 22:08 1,8 C 0,0 C 91 % 1024,3 hPa 0,0 l/m 0 min 0 min 0,0 UV-I 0 W/m 5,1 km/h (1 Bft)
06.12.2013 22:10 1,7 C 0,0 C 91 % 1024,5 hPa 0,0 l/m 0 min 0 min 0,0 UV-I 0 W/m 5,1 km/h (1 Bft)
06.12.2013 22:12 1,7 C 0,0 C 91 % 1024,4 hPa 0,0 l/m 0 min 0 min 0,0 UV-I 0 W/m 0,0 km/h (0 Bft)
06.12.2013 22:14 1,7 C 0,0 C 91 % 1024,5 hPa 0,0 l/m 0 min 0 min 0,0 UV-I 0 W/m 10,3 km/h (2 Bft)
06.12.2013 22:16 1,7 C 0,0 C 91 % 1024,6 hPa 0,0 l/m 0 min 0 min 0,0 UV-I 0 W/m 0,0 km/h (0 Bft)
06.12.2013 22:18 1,7 C 0,0 C 91 % 1024,6 hPa 0,0 l/m 0 min 0 min 0,0 UV-I 0 W/m 5,1 km/h (1 Bft)
06.12.2013 22:20 1,7 C 0,0 C 91 % 1024,6 hPa 0,0 l/m 0 min 0 min 0,0 UV-I 0 W/m 7,7 km/h (2 Bft)
06.12.2013 22:22 1,7 C 0,0 C 91 % 1024,4 hPa 0,0 l/m 0 min 0 min 0,0 UV-I 0 W/m 18,0 km/h (3 Bft)
06.12.2013 22:24 1,6 C 0,0 C 91 % 1024,4 hPa 0,0 l/m 0 min 0 min 0,0 UV-I 0 W/m 5,1 km/h (1 Bft)
06.12.2013 22:26 1,7 C 0,0 C 92 % 1024,7 hPa 0,0 l/m 0 min 0 min 0,0 UV-I 0 W/m 5,1 km/h (1 Bft)
06.12.2013 22:28 1,6 C 0,6 C 92 % 1024,8 hPa 0,0 l/m 0 min 0 min 0,0 UV-I 0 W/m 5,1 km/h (1 Bft)
06.12.2013 22:30 1,6 C 0,6 C 92 % 1024,7 hPa 0,0 l/m 0 min 0 min 0,0 UV-I 0 W/m 15,4 km/h (3 Bft)
06.12.2013 22:32 1,7 C 0,6 C 92 % 1024,7 hPa 0,0 l/m 0 min 0 min 0,0 UV-I 0 W/m 12,9 km/h (3 Bft)
06.12.2013 22:34 1,7 C 0,6 C 92 % 1024,4 hPa 0,0 l/m 0 min 0 min 0,0 UV-I 0 W/m 7,7 km/h (2 Bft)
06.12.2013 22:36 1,7 C 0,6 C 92 % 1024,6 hPa 0,0 l/m 0 min 0 min 0,0 UV-I 0 W/m 10,3 km/h (2 Bft)
06.12.2013 22:38 1,7 C 0,6 C 92 % 1024,7 hPa 0,0 l/m 0 min 0 min 0,0 UV-I 0 W/m 2,6 km/h (1 Bft)
06.12.2013 22:40 1,7 C 0,6 C 92 % 1024,8 hPa 0,0 l/m 0 min 0 min 0,0 UV-I 0 W/m 18,0 km/h (3 Bft)
06.12.2013 22:42 1,7 C 0,6 C 92 % 1024,7 hPa 0,0 l/m 0 min 0 min 0,0 UV-I 0 W/m 12,9 km/h (3 Bft)
06.12.2013 22:44 1,7 C 0,6 C 92 % 1024,6 hPa 0,0 l/m 0 min 0 min 0,0 UV-I 0 W/m 10,3 km/h (2 Bft)
06.12.2013 22:46 1,8 C 0,6 C 92 % 1024,7 hPa 0,0 l/m 0 min 0 min 0,0 UV-I 0 W/m 18,0 km/h (3 Bft)
06.12.2013 22:48 1,8 C 0,6 C 92 % 1024,7 hPa 0,0 l/m 0 min 0 min 0,0 UV-I 0 W/m 12,9 km/h (3 Bft)
06.12.2013 22:50 1,8 C 0,6 C 92 % 1024,7 hPa 0,0 l/m 0 min 0 min 0,0 UV-I 0 W/m 5,1 km/h (1 Bft)
06.12.2013 22:52 1,9 C 1,1 C 92 % 1024,7 hPa 0,0 l/m 0 min 0 min 0,0 UV-I 0 W/m 15,4 km/h (3 Bft)
06.12.2013 22:54 1,9 C 1,1 C 92 % 1024,7 hPa 0,0 l/m 0 min 0 min 0,0 UV-I 0 W/m 5,1 km/h (1 Bft)
06.12.2013 22:56 1,9 C 1,1 C 92 % 1024,7 hPa 0,0 l/m 0 min 0 min 0,0 UV-I 0 W/m 5,1 km/h (1 Bft)
06.12.2013 22:58 1,9 C 1,1 C 92 % 1024,6 hPa 0,0 l/m 0 min 0 min 0,0 UV-I 0 W/m 12,9 km/h (3 Bft)
06.12.2013 23:00 2,0 C 1,1 C 92 % 1024,6 hPa 0,0 l/m 0 min 0 min 0,0 UV-I 0 W/m 10,3 km/h (2 Bft)
06.12.2013 23:02 2,0 C 1,1 C 92 % 1024,6 hPa 0,0 l/m 0 min 0 min 0,0 UV-I 0 W/m 12,9 km/h (3 Bft)
06.12.2013 23:04 2,1 C 1,1 C 92 % 1024,6 hPa 0,0 l/m 0 min 0 min 0,0 UV-I 0 W/m 15,4 km/h (3 Bft)
06.12.2013 23:06 2,1 C 1,1 C 92 % 1024,4 hPa 0,0 l/m 0 min 0 min 0,0 UV-I 0 W/m 5,1 km/h (1 Bft)
06.12.2013 23:08 2,1 C 1,1 C 92 % 1024,4 hPa 0,0 l/m 0 min 0 min 0,0 UV-I 0 W/m 15,4 km/h (3 Bft)
06.12.2013 23:10 2,1 C 0,6 C 92 % 1024,4 hPa 0,0 l/m 0 min 0 min 0,0 UV-I 0 W/m 15,4 km/h (3 Bft)
06.12.2013 23:12 2,1 C 0,6 C 92 % 1024,5 hPa 0,0 l/m 0 min 0 min 0,0 UV-I 0 W/m 7,7 km/h (2 Bft)
06.12.2013 23:14 2,1 C 0,6 C 92 % 1024,5 hPa 0,0 l/m 0 min 0 min 0,0 UV-I 0 W/m 10,3 km/h (2 Bft)
06.12.2013 23:16 2,1 C 0,6 C 92 % 1024,6 hPa 0,0 l/m 0 min 0 min 0,0 UV-I 0 W/m 7,7 km/h (2 Bft)
06.12.2013 23:18 2,1 C 0,6 C 92 % 1024,7 hPa 0,0 l/m 0 min 0 min 0,0 UV-I 0 W/m 7,7 km/h (2 Bft)
06.12.2013 23:20 2,1 C 0,6 C 91 % 1024,8 hPa 0,0 l/m 0 min 0 min 0,0 UV-I 0 W/m 5,1 km/h (1 Bft)
06.12.2013 23:22 2,1 C 0,6 C 91 % 1024,7 hPa 0,0 l/m 0 min 0 min 0,0 UV-I 0 W/m 7,7 km/h (2 Bft)
06.12.2013 23:24 2,1 C 0,6 C 91 % 1024,8 hPa 0,0 l/m 0 min 0 min 0,0 UV-I 0 W/m 15,4 km/h (3 Bft)
06.12.2013 23:26 2,1 C 0,6 C 91 % 1024,7 hPa 0,0 l/m 0 min 0 min 0,0 UV-I 0 W/m 7,7 km/h (2 Bft)
06.12.2013 23:28 2,0 C 0,6 C 91 % 1024,8 hPa 0,0 l/m 0 min 0 min 0,0 UV-I 0 W/m 12,9 km/h (3 Bft)
06.12.2013 23:30 2,0 C 0,6 C 91 % 1024,8 hPa 0,0 l/m 0 min 0 min 0,0 UV-I 0 W/m 12,9 km/h (3 Bft)
06.12.2013 23:32 2,0 C 0,6 C 91 % 1024,9 hPa 0,0 l/m 0 min 0 min 0,0 UV-I 0 W/m 10,3 km/h (2 Bft)
06.12.2013 23:34 2,0 C 0,6 C 91 % 1024,9 hPa 0,0 l/m 0 min 0 min 0,0 UV-I 0 W/m 7,7 km/h (2 Bft)
06.12.2013 23:36 2,0 C 0,6 C 91 % 1024,9 hPa 0,0 l/m 0 min 0 min 0,0 UV-I 0 W/m 5,1 km/h (1 Bft)
06.12.2013 23:38 2,0 C 0,6 C 91 % 1024,9 hPa 0,0 l/m 0 min 0 min 0,0 UV-I 0 W/m 12,9 km/h (3 Bft)
06.12.2013 23:40 2,0 C 0,6 C 91 % 1025,0 hPa 0,0 l/m 0 min 0 min 0,0 UV-I 0 W/m 10,3 km/h (2 Bft)
06.12.2013 23:42 2,0 C 0,6 C 91 % 1025,0 hPa 0,0 l/m 0 min 0 min 0,0 UV-I 0 W/m 10,3 km/h (2 Bft)
06.12.2013 23:44 2,0 C 0,6 C 91 % 1025,1 hPa 0,0 l/m 0 min 0 min 0,0 UV-I 0 W/m 2,6 km/h (1 Bft)
06.12.2013 23:46 2,0 C 0,6 C 91 % 1025,1 hPa 0,0 l/m 0 min 0 min 0,0 UV-I 0 W/m 10,3 km/h (2 Bft)
06.12.2013 23:48 2,0 C 0,6 C 91 % 1025,1 hPa 0,0 l/m 0 min 0 min 0,0 UV-I 0 W/m 5,1 km/h (1 Bft)
06.12.2013 23:50 2,0 C 0,6 C 91 % 1025,1 hPa 0,0 l/m 0 min 0 min 0,0 UV-I 0 W/m 2,6 km/h (1 Bft)
06.12.2013 23:52 2,0 C 1,1 C 91 % 1025,1 hPa 0,0 l/m 0 min 0 min 0,0 UV-I 0 W/m 5,1 km/h (1 Bft)
06.12.2013 23:54 2,0 C 1,1 C 91 % 1025,1 hPa 0,0 l/m 0 min 0 min 0,0 UV-I 0 W/m 7,7 km/h (2 Bft)
06.12.2013 23:56 2,0 C 1,1 C 91 % 1025,2 hPa 0,0 l/m 0 min 0 min 0,0 UV-I 0 W/m 2,6 km/h (1 Bft)
06.12.2013 23:58 2,0 C 1,1 C 91 % 1025,1 hPa 0,0 l/m 0 min 0 min 0,0 UV-I 0 W/m 5,1 km/h (1 Bft)
_ Min-Zeit 10:04 07:02 05:34 00:18 - - - - - 02:00
Minimum _ 0,5 C -1,1 C 85 % 1015,0 hPa - - - - - 0,0 km/h (0 Bft)
_ Max-Zeit 00:34 00:20 11:28 23:56 00:48 00:00 00:28 00:00 12:38 01:34
Maximum _ 2,9 C 1,7 C 97 % 1025,2 hPa 0,2 l/m 0 min 2 min 0,0 UV-I 91 W/m 43,8 km/h
N-NW (6 Bft)
Durchschnitt _ 1,8 C 0,4 C 93 % 1020,0 hPa #6,0 l/m #0 min. #8:56 h 0,0 UV-I 34 W/m 12,1 km/h (2 Bft)
© 2013 W. Hausmann